| time (UTC) | temp C | wind direction | speed KPH | gust KPH | rain 1hr cm | rain 24hr cm | rain mn cm | humidity % | barometer mb |
| 20260503192733 | 15 | 138 | 3.2 | 0.0 | 0.00 | 0.00 | 0.00 | 32 | 1012.3 |
| 20260503192631 | 15 | 311 | 4.8 | 0.0 | 0.00 | 0.00 | 0.00 | 31 | 1012.3 |
| 20260503192537 | 15 | 303 | 4.8 | 0.0 | 0.00 | 0.00 | 0.00 | 31 | 1012.3 |
| 20260503192434 | 15 | 257 | 3.2 | 0.0 | 0.00 | 0.00 | 0.00 | 32 | 1012.3 |
| 20260503192355 | 15 | 334 | 3.2 | 0.0 | 0.00 | 0.00 | 0.00 | 32 | 1012.3 |
| 20260503192239 | 15 | 286 | 4.8 | 0.0 | 0.00 | 0.00 | 0.00 | 32 | 1012.3 |
| 20260503192140 | 15 | 309 | 4.8 | 0.0 | 0.00 | 0.00 | 0.00 | 31 | 1012.3 |
| 20260503192039 | 15 | 286 | 4.8 | 0.0 | 0.00 | 0.00 | 0.00 | 32 | 1012.3 |
| 20260503191938 | 14 | 257 | 3.2 | 0.0 | 0.00 | 0.00 | 0.00 | 31 | 1012.3 |
| 20260503191836 | 14 | 294 | 3.2 | 0.0 | 0.00 | 0.00 | 0.00 | 31 | 1012.3 |
| 20260503191740 | 15 | 294 | 3.2 | 0.0 | 0.00 | 0.00 | 0.00 | 31 | 1012.3 |
| 20260503191642 | 15 | 222 | 3.2 | 0.0 | 0.00 | 0.00 | 0.00 | 32 | 1012.3 |
| 20260503191604 | 15 | 3 | 1.6 | 0.0 | 0.00 | 0.00 | 0.00 | 31 | 1012.3 |
| 20260503191504 | 15 | 244 | 1.6 | 0.0 | 0.00 | 0.00 | 0.00 | 31 | 1012.3 |
| 20260503191344 | 15 | 323 | 1.6 | 0.0 | 0.00 | 0.00 | 0.00 | 31 | 1012.5 |
| 20260503191243 | 15 | 294 | 1.6 | 0.0 | 0.00 | 0.00 | 0.00 | 32 | 1012.5 |
| 20260503191126 | 15 | 253 | 3.2 | 0.0 | 0.00 | 0.00 | 0.00 | 33 | 1012.5 |
| 20260503191028 | 15 | 285 | 3.2 | 0.0 | 0.00 | 0.00 | 0.00 | 34 | 1012.5 |
| 20260503190928 | 14 | 281 | 3.2 | 0.0 | 0.00 | 0.00 | 0.00 | 34 | 1012.5 |
| 20260503190829 | 14 | 50 | 3.2 | 0.0 | 0.00 | 0.00 | 0.00 | 33 | 1012.5 |
| 20260503190730 | 14 | 319 | 4.8 | 0.0 | 0.00 | 0.00 | 0.00 | 32 | 1012.5 |
| 20260503190634 | 14 | 350 | 3.2 | 0.0 | 0.00 | 0.00 | 0.00 | 32 | 1012.5 |
| 20260503190536 | 14 | 338 | 4.8 | 0.0 | 0.00 | 0.00 | 0.00 | 32 | 1012.5 |
| 20260503190458 | 14 | 355 | 4.8 | 0.0 | 0.00 | 0.00 | 0.00 | 33 | 1012.5 |
| 20260503190339 | 14 | 14 | 4.8 | 0.0 | 0.00 | 0.00 | 0.00 | 32 | 1012.5 |
| 20260503190241 | 14 | 294 | 4.8 | 0.0 | 0.00 | 0.00 | 0.00 | 33 | 1012.5 |
| 20260503190146 | 14 | 173 | 3.2 | 0.0 | 0.00 | 0.00 | 0.00 | 32 | 1012.5 |
| 20260503190025 | 14 | 274 | 3.2 | 0.0 | 0.00 | 0.00 | 0.00 | 32 | 1012.5 |
| 20260503185928 | 14 | 251 | 3.2 | 0.0 | 0.00 | 0.00 | 0.00 | 32 | 1012.5 |
| 20260503185827 | 14 | 219 | 3.2 | 0.0 | 0.00 | 0.00 | 0.00 | 32 | 1012.6 |
| 20260503185729 | 14 | 230 | 4.8 | 0.0 | 0.00 | 0.00 | 0.00 | 33 | 1012.6 |
| 20260503185628 | 14 | 285 | 4.8 | 0.0 | 0.00 | 0.00 | 0.00 | 32 | 1012.6 |
| 20260503185535 | 14 | 211 | 6.4 | 0.0 | 0.00 | 0.00 | 0.00 | 32 | 1012.6 |
| 20260503185432 | 14 | 249 | 6.4 | 0.0 | 0.00 | 0.00 | 0.00 | 33 | 1012.6 |
| 20260503185334 | 13 | 248 | 6.4 | 0.0 | 0.00 | 0.00 | 0.00 | 34 | 1012.6 |
| 20260503185233 | 13 | 270 | 4.8 | 0.0 | 0.00 | 0.00 | 0.00 | 34 | 1012.6 |
| 20260503185134 | 13 | 209 | 6.4 | 0.0 | 0.00 | 0.00 | 0.00 | 33 | 1012.6 |
| 20260503185032 | 13 | 318 | 4.8 | 0.0 | 0.00 | 0.00 | 0.00 | 34 | 1012.6 |
| 20260503184933 | 13 | 18 | 4.8 | 0.0 | 0.00 | 0.00 | 0.00 | 33 | 1012.6 |
| 20260503184900 | 13 | 219 | 4.8 | 0.0 | 0.00 | 0.00 | 0.00 | 33 | 1012.6 |
| 20260503184743 | 13 | 232 | 3.2 | 0.0 | 0.00 | 0.00 | 0.00 | 33 | 1012.6 |
| 20260503184623 | 13 | 270 | 3.2 | 0.0 | 0.00 | 0.00 | 0.00 | 33 | 1012.6 |
| 20260503184546 | 13 | 316 | 1.6 | 0.0 | 0.00 | 0.00 | 0.00 | 33 | 1012.6 |
| 20260503184425 | 13 | 269 | 3.2 | 0.0 | 0.00 | 0.00 | 0.00 | 34 | 1012.6 |
| 20260503184346 | 13 | 241 | 1.6 | 0.0 | 0.00 | 0.00 | 0.00 | 35 | 1012.8 |
| 20260503184224 | 13 | 242 | 3.2 | 0.0 | 0.00 | 0.00 | 0.00 | 36 | 1012.8 |
| 20260503184149 | 13 | 266 | 3.2 | 0.0 | 0.00 | 0.00 | 0.00 | 35 | 1012.8 |
| 20260503184027 | 13 | 319 | 4.8 | 0.0 | 0.00 | 0.00 | 0.00 | 36 | 1012.8 |
| 20260503183931 | 13 | 5 | 4.8 | 0.0 | 0.00 | 0.00 | 0.00 | 35 | 1012.8 |
| 20260503183832 | 13 | 35 | 4.8 | 0.0 | 0.00 | 0.00 | 0.00 | 35 | 1012.8 |
| 20260503183733 | 13 | 309 | 6.4 | 0.0 | 0.00 | 0.00 | 0.00 | 35 | 1012.8 |
| 20260503183651 | 13 | 326 | 6.4 | 0.0 | 0.00 | 0.00 | 0.00 | 34 | 1012.8 |
| 20260503183535 | 13 | 297 | 6.4 | 0.0 | 0.00 | 0.00 | 0.00 | 34 | 1012.8 |
| 20260503183437 | 13 | 250 | 6.4 | 0.0 | 0.00 | 0.00 | 0.00 | 35 | 1012.8 |
| 20260503183337 | 13 | 345 | 8.0 | 0.0 | 0.00 | 0.00 | 0.00 | 35 | 1012.8 |
| 20260503183234 | 13 | 269 | 8.0 | 0.0 | 0.00 | 0.00 | 0.00 | 35 | 1012.8 |
| 20260503183139 | 13 | 286 | 6.4 | 0.0 | 0.00 | 0.00 | 0.00 | 36 | 1012.8 |
| 20260503183102 | 13 | 359 | 8.0 | 0.0 | 0.00 | 0.00 | 0.00 | 36 | 1012.8 |
| 20260503182940 | 13 | 301 | 8.0 | 0.0 | 0.00 | 0.00 | 0.00 | 35 | 1012.8 |
| 20260503182839 | 13 | 286 | 8.0 | 0.0 | 0.00 | 0.00 | 0.00 | 36 | 1013.0 |
| 20260503182727 | 13 | 263 | 6.4 | 0.0 | 0.00 | 0.00 | 0.00 | 35 | 1013.0 |
| 20260503182625 | 12 | 263 | 6.4 | 0.0 | 0.00 | 0.00 | 0.00 | 36 | 1013.0 |
| 20260503182527 | 12 | 248 | 6.4 | 0.0 | 0.00 | 0.00 | 0.00 | 36 | 1013.0 |
| 20260503182427 | 12 | 222 | 6.4 | 0.0 | 0.00 | 0.00 | 0.00 | 36 | 1013.0 |
| 20260503182327 | 12 | 224 | 4.8 | 0.0 | 0.00 | 0.00 | 0.00 | 36 | 1013.0 |
| 20260503182228 | 12 | 306 | 4.8 | 0.0 | 0.00 | 0.00 | 0.00 | 36 | 1013.0 |
| 20260503182133 | 12 | 286 | 4.8 | 0.0 | 0.00 | 0.00 | 0.00 | 37 | 1013.0 |
| 20260503182031 | 12 | 273 | 3.2 | 0.0 | 0.00 | 0.00 | 0.00 | 36 | 1013.0 |
| 20260503181931 | 12 | 242 | 3.2 | 0.0 | 0.00 | 0.00 | 0.00 | 37 | 1013.0 |
| 20260503181850 | 12 | 323 | 3.2 | 0.0 | 0.00 | 0.00 | 0.00 | 37 | 1013.0 |
| 20260503181731 | 12 | 253 | 3.2 | 0.0 | 0.00 | 0.00 | 0.00 | 37 | 1013.0 |
| 20260503181633 | 12 | 238 | 3.2 | 0.0 | 0.00 | 0.00 | 0.00 | 39 | 1013.0 |
| 20260503181539 | 12 | 29 | 3.2 | 0.0 | 0.00 | 0.00 | 0.00 | 38 | 1013.0 |
| 20260503181439 | 12 | 281 | 3.2 | 0.0 | 0.00 | 0.00 | 0.00 | 38 | 1013.0 |
| 20260503181341 | 12 | 316 | 4.8 | 0.0 | 0.00 | 0.00 | 0.00 | 38 | 1013.1 |
| 20260503181238 | 12 | 324 | 3.2 | 0.0 | 0.00 | 0.00 | 0.00 | 38 | 1013.1 |
| 20260503181139 | 12 | 282 | 4.8 | 0.0 | 0.00 | 0.00 | 0.00 | 38 | 1013.1 |
| 20260503181039 | 12 | 290 | 4.8 | 0.0 | 0.00 | 0.00 | 0.00 | 38 | 1013.1 |
| 20260503180939 | 12 | 315 | 4.8 | 0.0 | 0.00 | 0.00 | 0.00 | 38 | 1013.1 |
| 20260503180820 | 12 | 326 | 4.8 | 0.0 | 0.00 | 0.00 | 0.00 | 38 | 1013.1 |
| 20260503180726 | 12 | 282 | 4.8 | 0.0 | 0.00 | 0.00 | 0.00 | 37 | 1013.1 |
| 20260503180627 | 12 | 345 | 4.8 | 0.0 | 0.00 | 0.00 | 0.00 | 37 | 1013.1 |
| 20260503180528 | 12 | 330 | 4.8 | 0.0 | 0.00 | 0.00 | 0.00 | 36 | 1013.1 |
| 20260503180429 | 12 | 308 | 4.8 | 0.0 | 0.00 | 0.00 | 0.00 | 38 | 1013.1 |
| 20260503180330 | 12 | 289 | 4.8 | 0.0 | 0.00 | 0.00 | 0.00 | 38 | 1013.1 |
| 20260503180228 | 12 | 6 | 4.8 | 0.0 | 0.00 | 0.00 | 0.00 | 37 | 1013.1 |
| 20260503180133 | 12 | 211 | 4.8 | 0.0 | 0.00 | 0.00 | 0.00 | 36 | 1013.1 |
| 20260503180031 | 12 | 299 | 3.2 | 0.0 | 0.00 | 0.00 | 0.00 | 38 | 1013.1 |
| 20260503175931 | 12 | 296 | 4.8 | 0.0 | 0.00 | 0.00 | 0.00 | 37 | 1013.1 |
| 20260503175829 | 12 | 17 | 3.2 | 0.0 | 0.00 | 0.00 | 0.00 | 37 | 1013.2 |
| 20260503175731 | 12 | 68 | 3.2 | 0.0 | 0.00 | 0.00 | 0.00 | 37 | 1013.2 |
| 20260503175629 | 12 | 74 | 4.8 | 0.0 | 0.00 | 0.00 | 0.00 | 37 | 1013.2 |
| 20260503175534 | 12 | 278 | 4.8 | 0.0 | 0.00 | 0.00 | 0.00 | 37 | 1013.2 |
| 20260503175430 | 12 | 295 | 4.8 | 0.0 | 0.00 | 0.00 | 0.00 | 37 | 1013.2 |
| 20260503175332 | 12 | 269 | 3.2 | 0.0 | 0.00 | 0.00 | 0.00 | 37 | 1013.2 |
| 20260503175230 | 12 | 290 | 3.2 | 0.0 | 0.00 | 0.00 | 0.00 | 38 | 1013.2 |
| 20260503175153 | 12 | 308 | 3.2 | 0.0 | 0.00 | 0.00 | 0.00 | 39 | 1013.2 |
| 20260503175029 | 12 | 336 | 3.2 | 0.0 | 0.00 | 0.00 | 0.00 | 40 | 1013.2 |
| 20260503174930 | 12 | 14 | 4.8 | 0.0 | 0.00 | 0.00 | 0.00 | 40 | 1013.2 |
| 20260503174832 | 12 | 300 | 4.8 | 0.0 | 0.00 | 0.00 | 0.00 | 40 | 1013.2 |
| 20260503174734 | 12 | 300 | 6.4 | 0.0 | 0.00 | 0.00 | 0.00 | 40 | 1013.2 |
| 20260503174631 | 12 | 267 | 6.4 | 0.0 | 0.00 | 0.00 | 0.00 | 40 | 1013.2 |
| 20260503174533 | 12 | 261 | 6.4 | 0.0 | 0.00 | 0.00 | 0.00 | 40 | 1013.2 |
| 20260503174429 | 12 | 257 | 4.8 | 0.0 | 0.00 | 0.00 | 0.00 | 39 | 1013.2 |
| 20260503174331 | 12 | 189 | 4.8 | 0.0 | 0.00 | 0.00 | 0.00 | 39 | 1013.2 |
| 20260503174232 | 12 | 307 | 4.8 | 0.0 | 0.00 | 0.00 | 0.00 | 38 | 1013.2 |
| 20260503174137 | 12 | 213 | 4.8 | 0.0 | 0.00 | 0.00 | 0.00 | 38 | 1013.2 |
| 20260503174036 | 12 | 209 | 4.8 | 0.0 | 0.00 | 0.00 | 0.00 | 38 | 1013.2 |
| 20260503173938 | 12 | 276 | 4.8 | 0.0 | 0.00 | 0.00 | 0.00 | 38 | 1013.2 |
| 20260503173837 | 12 | 282 | 3.2 | 0.0 | 0.00 | 0.00 | 0.00 | 39 | 1013.2 |
| 20260503173738 | 12 | 241 | 3.2 | 0.0 | 0.00 | 0.00 | 0.00 | 40 | 1013.2 |
| 20260503173659 | 12 | 254 | 3.2 | 0.0 | 0.00 | 0.00 | 0.00 | 40 | 1013.2 |
| 20260503173538 | 12 | 233 | 3.2 | 0.0 | 0.00 | 0.00 | 0.00 | 41 | 1013.2 |
| 20260503173503 | 12 | 307 | 3.2 | 0.0 | 0.00 | 0.00 | 0.00 | 41 | 1013.2 |
| 20260503173343 | 12 | 319 | 3.2 | 0.0 | 0.00 | 0.00 | 0.00 | 41 | 1013.2 |
| 20260503173241 | 12 | 345 | 3.2 | 0.0 | 0.00 | 0.00 | 0.00 | 41 | 1013.2 |
| 20260503173143 | 12 | 291 | 1.6 | 0.0 | 0.00 | 0.00 | 0.00 | 40 | 1013.2 |
| 20260503173040 | 12 | 286 | 3.2 | 0.0 | 0.00 | 0.00 | 0.00 | 41 | 1013.2 |
| 20260503172941 | 12 | 267 | 3.2 | 0.0 | 0.00 | 0.00 | 0.00 | 41 | 1013.2 |
| 20260503172842 | 11 | 240 | 3.2 | 0.0 | 0.00 | 0.00 | 0.00 | 41 | 1013.4 |
| 20260503172731 | 11 | 242 | 3.2 | 0.0 | 0.00 | 0.00 | 0.00 | 41 | 1013.4 |
| 20260503172650 | 11 | 355 | 4.8 | 0.0 | 0.00 | 0.00 | 0.00 | 41 | 1013.4 |
| 20260503172531 | 11 | 7 | 4.8 | 0.0 | 0.00 | 0.00 | 0.00 | 41 | 1013.4 |
| 20260503172428 | 11 | 312 | 4.8 | 0.0 | 0.00 | 0.00 | 0.00 | 41 | 1013.4 |
| 20260503172332 | 11 | 293 | 4.8 | 0.0 | 0.00 | 0.00 | 0.00 | 41 | 1013.4 |
| 20260503172250 | 11 | 340 | 4.8 | 0.0 | 0.00 | 0.00 | 0.00 | 40 | 1013.4 |
| 20260503172131 | 11 | 5 | 4.8 | 0.0 | 0.00 | 0.00 | 0.00 | 39 | 1013.4 |
| 20260503172034 | 12 | 264 | 4.8 | 0.0 | 0.00 | 0.00 | 0.00 | 39 | 1013.4 |
| 20260503171935 | 12 | 288 | 4.8 | 0.0 | 0.00 | 0.00 | 0.00 | 39 | 1013.4 |
| 20260503171832 | 12 | 285 | 4.8 | 0.0 | 0.00 | 0.00 | 0.00 | 38 | 1013.4 |
| 20260503171734 | 12 | 327 | 3.2 | 0.0 | 0.00 | 0.00 | 0.00 | 38 | 1013.4 |
| 20260503171659 | 12 | 303 | 3.2 | 0.0 | 0.00 | 0.00 | 0.00 | 39 | 1013.4 |
| 20260503171544 | 12 | 261 | 3.2 | 0.0 | 0.00 | 0.00 | 0.00 | 39 | 1013.4 |
| 20260503171425 | 12 | 305 | 3.2 | 0.0 | 0.00 | 0.00 | 0.00 | 40 | 1013.4 |
| 20260503171331 | 12 | 319 | 4.8 | 0.0 | 0.00 | 0.00 | 0.00 | 40 | 1013.4 |
| 20260503171228 | 12 | 291 | 4.8 | 0.0 | 0.00 | 0.00 | 0.00 | 40 | 1013.4 |
| 20260503171150 | 11 | 313 | 4.8 | 0.0 | 0.00 | 0.00 | 0.00 | 41 | 1013.4 |
| 20260503171028 | 11 | 333 | 4.8 | 0.0 | 0.00 | 0.00 | 0.00 | 40 | 1013.4 |
| 20260503170929 | 11 | 285 | 6.4 | 0.0 | 0.00 | 0.00 | 0.00 | 40 | 1013.4 |
| 20260503170826 | 11 | 310 | 6.4 | 0.0 | 0.00 | 0.00 | 0.00 | 39 | 1013.4 |
| 20260503170727 | 11 | 311 | 6.4 | 0.0 | 0.00 | 0.00 | 0.00 | 40 | 1013.4 |
| 20260503170628 | 11 | 6 | 4.8 | 0.0 | 0.00 | 0.00 | 0.00 | 40 | 1013.4 |
| 20260503170529 | 11 | 4 | 4.8 | 0.0 | 0.00 | 0.00 | 0.00 | 40 | 1013.4 |
| 20260503170446 | 11 | 34 | 4.8 | 0.0 | 0.00 | 0.00 | 0.00 | 42 | 1013.4 |
| 20260503170327 | 11 | 7 | 4.8 | 0.0 | 0.00 | 0.00 | 0.00 | 40 | 1013.4 |
| 20260503170226 | 11 | 302 | 3.2 | 0.0 | 0.00 | 0.00 | 0.00 | 41 | 1013.4 |
| 20260503170148 | 11 | 319 | 4.8 | 0.0 | 0.00 | 0.00 | 0.00 | 41 | 1013.4 |
| 20260503160138 | 11 | 286 | 4.8 | 0.0 | 0.00 | 0.00 | 0.00 | 44 | 1013.9 |
| 20260503150937 | 10 | 290 | 6.4 | 0.0 | 0.00 | 0.00 | 0.00 | 45 | 1013.9 |
| 20260503150836 | 10 | 253 | 4.8 | 0.0 | 0.00 | 0.00 | 0.00 | 46 | 1013.9 |
| 20260503150741 | 10 | 268 | 4.8 | 0.0 | 0.00 | 0.00 | 0.00 | 45 | 1013.9 |
| 20260503150702 | 10 | 350 | 4.8 | 0.0 | 0.00 | 0.00 | 0.00 | 45 | 1013.9 |
| 20260503150543 | 10 | 12 | 4.8 | 0.0 | 0.00 | 0.00 | 0.00 | 44 | 1013.9 |
| 20260503150443 | 10 | 299 | 4.8 | 0.0 | 0.00 | 0.00 | 0.00 | 43 | 1013.9 |
| 20260503150404 | 10 | 284 | 4.8 | 0.0 | 0.00 | 0.00 | 0.00 | 43 | 1013.9 |
| 20260503150225 | 10 | 282 | 3.2 | 0.0 | 0.00 | 0.00 | 0.00 | 44 | 1013.9 |
| 20260503150127 | 10 | 325 | 3.2 | 0.0 | 0.00 | 0.00 | 0.00 | 44 | 1013.9 |
| 20260503140223 | 9 | 285 | 8.0 | 0.0 | 0.00 | 0.00 | 0.00 | 48 | 1014.2 |
| 20260503140149 | 9 | 345 | 8.0 | 0.0 | 0.00 | 0.00 | 0.00 | 48 | 1014.2 |
| 20260503131348 | 8 | 290 | 4.8 | 0.0 | 0.00 | 0.00 | 0.00 | 52 | 1014.0 |
| 20260503131229 | 8 | 14 | 4.8 | 0.0 | 0.00 | 0.00 | 0.00 | 52 | 1014.0 |
| 20260503131132 | 8 | 41 | 4.8 | 0.0 | 0.00 | 0.00 | 0.00 | 53 | 1014.0 |
| 20260503131038 | 8 | 41 | 4.8 | 0.0 | 0.00 | 0.00 | 0.00 | 53 | 1014.0 |
| 20260503131003 | 9 | 44 | 4.8 | 0.0 | 0.00 | 0.00 | 0.00 | 53 | 1014.0 |
| 20260503130839 | 9 | 313 | 4.8 | 0.0 | 0.00 | 0.00 | 0.00 | 53 | 1014.0 |
| 20260503130742 | 9 | 304 | 4.8 | 0.0 | 0.00 | 0.00 | 0.00 | 53 | 1014.0 |
| 20260503130704 | 8 | 285 | 4.8 | 0.0 | 0.00 | 0.00 | 0.00 | 53 | 1014.0 |
| 20260503130605 | 8 | 338 | 4.8 | 0.0 | 0.00 | 0.00 | 0.00 | 53 | 1014.0 |
| 20260503130440 | 8 | 322 | 4.8 | 0.0 | 0.00 | 0.00 | 0.00 | 54 | 1014.0 |
| 20260503130343 | 8 | 308 | 4.8 | 0.0 | 0.00 | 0.00 | 0.00 | 54 | 1014.0 |
| 20260503130248 | 8 | 327 | 4.8 | 0.0 | 0.00 | 0.00 | 0.00 | 55 | 1014.0 |
| 20260503130128 | 8 | 334 | 4.8 | 0.0 | 0.00 | 0.00 | 0.00 | 55 | 1014.0 |
| 20260503120129 | 7 | 5 | 3.2 | 0.0 | 0.00 | 0.00 | 0.00 | 58 | 1013.7 |
| 20260503110738 | 7 | 26 | 1.6 | 0.0 | 0.00 | 0.00 | 0.00 | 58 | 1013.2 |
| 20260503110636 | 7 | 56 | 0.0 | 0.0 | 0.00 | 0.00 | 0.00 | 58 | 1013.2 |
| 20260503110539 | 7 | 330 | 0.0 | 0.0 | 0.00 | 0.00 | 0.00 | 58 | 1013.2 |
| 20260503110440 | 7 | 327 | 0.0 | 0.0 | 0.00 | 0.00 | 0.00 | 58 | 1013.2 |
| 20260503110343 | 7 | 345 | 0.0 | 0.0 | 0.00 | 0.00 | 0.00 | 58 | 1013.2 |
| 20260503110224 | 7 | 345 | 0.0 | 0.0 | 0.00 | 0.00 | 0.00 | 58 | 1013.2 |
| 20260503110145 | 7 | 345 | 1.6 | 0.0 | 0.00 | 0.00 | 0.00 | 58 | 1013.2 |
| 20260503100237 | 7 | 326 | 3.2 | 0.0 | 0.00 | 0.00 | 0.00 | 55 | 1012.2 |
| 20260503100143 | 7 | 334 | 3.2 | 0.0 | 0.00 | 0.00 | 0.00 | 55 | 1012.2 |
| 20260503090440 | 8 | 20 | 1.6 | 0.0 | 0.00 | 0.00 | 0.00 | 56 | 1011.6 |
| 20260503090341 | 8 | 32 | 1.6 | 0.0 | 0.00 | 0.00 | 0.00 | 55 | 1011.6 |
| 20260503090240 | 8 | 32 | 1.6 | 0.0 | 0.00 | 0.00 | 0.00 | 56 | 1011.6 |
| 20260503090146 | 8 | 32 | 1.6 | 0.0 | 0.00 | 0.00 | 0.00 | 56 | 1011.6 |
| 20260503081533 | 8 | 4 | 0.0 | 0.0 | 0.00 | 0.00 | 0.00 | 55 | 1011.6 |
| 20260503081430 | 8 | 3 | 1.6 | 0.0 | 0.00 | 0.00 | 0.00 | 55 | 1011.6 |
| 20260503081332 | 8 | 3 | 1.6 | 0.0 | 0.00 | 0.00 | 0.00 | 56 | 1011.5 |
| 20260503081229 | 8 | 2 | 0.0 | 0.0 | 0.00 | 0.00 | 0.00 | 56 | 1011.5 |
| 20260503081132 | 8 | 3 | 0.0 | 0.0 | 0.00 | 0.00 | 0.00 | 56 | 1011.5 |
| 20260503081051 | 8 | 7 | 0.0 | 0.0 | 0.00 | 0.00 | 0.00 | 57 | 1011.5 |
| 20260503080933 | 8 | 3 | 0.0 | 0.0 | 0.00 | 0.00 | 0.00 | 56 | 1011.5 |
| 20260503080835 | 8 | 2 | 0.0 | 0.0 | 0.00 | 0.00 | 0.00 | 56 | 1011.5 |
| 20260503080736 | 8 | 360 | 0.0 | 0.0 | 0.00 | 0.00 | 0.00 | 57 | 1011.5 |
| 20260503080639 | 8 | 355 | 0.0 | 0.0 | 0.00 | 0.00 | 0.00 | 57 | 1011.5 |
| 20260503080541 | 8 | 355 | 0.0 | 0.0 | 0.00 | 0.00 | 0.00 | 56 | 1011.5 |
| 20260503080437 | 8 | 355 | 0.0 | 0.0 | 0.00 | 0.00 | 0.00 | 56 | 1011.5 |
| 20260503080339 | 8 | 350 | 0.0 | 0.0 | 0.00 | 0.00 | 0.00 | 56 | 1011.5 |
| 20260503080238 | 8 | 350 | 0.0 | 0.0 | 0.00 | 0.00 | 0.00 | 56 | 1011.5 |
| 20260503080124 | 8 | 350 | 0.0 | 0.0 | 0.00 | 0.00 | 0.00 | 56 | 1011.5 |
| 20260503072937 | 8 | 355 | 0.0 | 0.0 | 0.00 | 0.00 | 0.00 | 55 | 1011.4 |
| 20260503072858 | 8 | 355 | 0.0 | 0.0 | 0.00 | 0.00 | 0.00 | 55 | 1011.5 |
| 20260503072739 | 8 | 355 | 0.0 | 0.0 | 0.00 | 0.00 | 0.00 | 54 | 1011.5 |
| 20260503072637 | 8 | 355 | 0.0 | 0.0 | 0.00 | 0.00 | 0.00 | 54 | 1011.5 |
| 20260503072539 | 8 | 355 | 0.0 | 0.0 | 0.00 | 0.00 | 0.00 | 54 | 1011.5 |
| 20260503072456 | 8 | 355 | 0.0 | 0.0 | 0.00 | 0.00 | 0.00 | 55 | 1011.5 |
| 20260503072337 | 8 | 355 | 0.0 | 0.0 | 0.00 | 0.00 | 0.00 | 54 | 1011.5 |
| 20260503072235 | 8 | 355 | 0.0 | 0.0 | 0.00 | 0.00 | 0.00 | 54 | 1011.5 |
| 20260503072140 | 8 | 355 | 0.0 | 0.0 | 0.00 | 0.00 | 0.00 | 54 | 1011.5 |
| 20260503072041 | 8 | 355 | 0.0 | 0.0 | 0.00 | 0.00 | 0.00 | 55 | 1011.5 |
| 20260503071942 | 8 | 350 | 0.0 | 0.0 | 0.00 | 0.00 | 0.00 | 54 | 1011.5 |
| 20260503071841 | 8 | 305 | 0.0 | 0.0 | 0.00 | 0.00 | 0.00 | 54 | 1011.5 |
| 20260503071743 | 8 | 299 | 0.0 | 0.0 | 0.00 | 0.00 | 0.00 | 55 | 1011.5 |
| 20260503071640 | 8 | 36 | 0.0 | 0.0 | 0.00 | 0.00 | 0.00 | 54 | 1011.5 |
| 20260503071546 | 8 | 36 | 0.0 | 0.0 | 0.00 | 0.00 | 0.00 | 54 | 1011.5 |
| 20260503071507 | 8 | 14 | 0.0 | 0.0 | 0.00 | 0.00 | 0.00 | 54 | 1011.5 |
| 20260503071406 | 8 | 3 | 0.0 | 0.0 | 0.00 | 0.00 | 0.00 | 54 | 1011.5 |
| 20260503071224 | 8 | 2 | 0.0 | 0.0 | 0.00 | 0.00 | 0.00 | 55 | 1011.5 |
| 20260503071126 | 8 | 2 | 0.0 | 0.0 | 0.00 | 0.00 | 0.00 | 55 | 1011.5 |
| 20260503071028 | 8 | 2 | 0.0 | 0.0 | 0.00 | 0.00 | 0.00 | 56 | 1011.5 |
| 20260503070928 | 8 | 3 | 0.0 | 0.0 | 0.00 | 0.00 | 0.00 | 54 | 1011.5 |
| 20260503070846 | 8 | 3 | 0.0 | 0.0 | 0.00 | 0.00 | 0.00 | 54 | 1011.5 |
| 20260503070732 | 8 | 3 | 0.0 | 0.0 | 0.00 | 0.00 | 0.00 | 54 | 1011.5 |
| 20260503070630 | 8 | 3 | 0.0 | 0.0 | 0.00 | 0.00 | 0.00 | 54 | 1011.5 |
| 20260503070537 | 8 | 3 | 0.0 | 0.0 | 0.00 | 0.00 | 0.00 | 54 | 1011.5 |
| 20260503070433 | 8 | 3 | 0.0 | 0.0 | 0.00 | 0.00 | 0.00 | 54 | 1011.5 |
| 20260503070336 | 8 | 3 | 0.0 | 0.0 | 0.00 | 0.00 | 0.00 | 55 | 1011.5 |
| 20260503070234 | 8 | 3 | 0.0 | 0.0 | 0.00 | 0.00 | 0.00 | 54 | 1011.5 |
| 20260503070139 | 8 | 3 | 0.0 | 0.0 | 0.00 | 0.00 | 0.00 | 54 | 1011.5 |
| 20260503060340 | 9 | 1 | 0.0 | 0.0 | 0.00 | 0.00 | 0.00 | 51 | 1011.6 |
| 20260503060302 | 9 | 1 | 0.0 | 0.0 | 0.00 | 0.00 | 0.00 | 52 | 1011.6 |
| 20260503060202 | 9 | 1 | 0.0 | 0.0 | 0.00 | 0.00 | 0.00 | 52 | 1011.6 |
| 20260503055126 | 10 | 340 | 0.0 | 0.0 | 0.00 | 0.00 | 0.00 | 51 | 1011.7 |
| 20260503055028 | 10 | 340 | 0.0 | 0.0 | 0.00 | 0.00 | 0.00 | 51 | 1011.7 |
| 20260503054927 | 10 | 340 | 0.0 | 0.0 | 0.00 | 0.00 | 0.00 | 51 | 1011.7 |
| 20260503054826 | 10 | 340 | 0.0 | 0.0 | 0.00 | 0.00 | 0.00 | 51 | 1011.7 |
| 20260503054728 | 10 | 340 | 0.0 | 0.0 | 0.00 | 0.00 | 0.00 | 51 | 1011.7 |
| 20260503054626 | 10 | 340 | 0.0 | 0.0 | 0.00 | 0.00 | 0.00 | 51 | 1011.7 |
| 20260503054533 | 10 | 338 | 0.0 | 0.0 | 0.00 | 0.00 | 0.00 | 51 | 1011.7 |
| 20260503054429 | 10 | 332 | 0.0 | 0.0 | 0.00 | 0.00 | 0.00 | 51 | 1011.7 |
| 20260503054334 | 10 | 332 | 0.0 | 0.0 | 0.00 | 0.00 | 0.00 | 51 | 1011.7 |
| 20260503054232 | 10 | 332 | 0.0 | 0.0 | 0.00 | 0.00 | 0.00 | 52 | 1011.7 |
| 20260503054134 | 10 | 332 | 0.0 | 0.0 | 0.00 | 0.00 | 0.00 | 51 | 1011.7 |
| 20260503054032 | 10 | 332 | 0.0 | 0.0 | 0.00 | 0.00 | 0.00 | 51 | 1011.7 |
| 20260503053933 | 10 | 332 | 0.0 | 0.0 | 0.00 | 0.00 | 0.00 | 51 | 1011.7 |
| 20260503053837 | 10 | 330 | 0.0 | 0.0 | 0.00 | 0.00 | 0.00 | 51 | 1011.7 |
| 20260503053738 | 10 | 330 | 0.0 | 0.0 | 0.00 | 0.00 | 0.00 | 51 | 1011.7 |
| 20260503053636 | 10 | 330 | 0.0 | 0.0 | 0.00 | 0.00 | 0.00 | 52 | 1011.7 |
| 20260503053542 | 10 | 330 | 0.0 | 0.0 | 0.00 | 0.00 | 0.00 | 52 | 1011.7 |
| 20260503053442 | 10 | 329 | 0.0 | 0.0 | 0.00 | 0.00 | 0.00 | 52 | 1011.7 |
| 20260503053404 | 10 | 329 | 0.0 | 0.0 | 0.00 | 0.00 | 0.00 | 52 | 1011.7 |
| 20260503053224 | 10 | 329 | 0.0 | 0.0 | 0.00 | 0.00 | 0.00 | 52 | 1011.7 |
| 20260503053145 | 10 | 330 | 0.0 | 0.0 | 0.00 | 0.00 | 0.00 | 52 | 1011.7 |
| 20260503053044 | 10 | 330 | 0.0 | 0.0 | 0.00 | 0.00 | 0.00 | 51 | 1011.7 |
| 20260503052945 | 10 | 329 | 0.0 | 0.0 | 0.00 | 0.00 | 0.00 | 51 | 1011.7 |
| 20260503052843 | 10 | 329 | 0.0 | 0.0 | 0.00 | 0.00 | 0.00 | 51 | 1011.8 |
| 20260503052743 | 10 | 329 | 0.0 | 0.0 | 0.00 | 0.00 | 0.00 | 52 | 1011.8 |
| 20260503052621 | 10 | 329 | 0.0 | 0.0 | 0.00 | 0.00 | 0.00 | 51 | 1011.8 |
| 20260503052530 | 10 | 329 | 0.0 | 0.0 | 0.00 | 0.00 | 0.00 | 50 | 1011.8 |
| 20260503052448 | 10 | 329 | 0.0 | 0.0 | 0.00 | 0.00 | 0.00 | 50 | 1011.8 |
| 20260503052348 | 10 | 329 | 0.0 | 0.0 | 0.00 | 0.00 | 0.00 | 50 | 1011.8 |
| 20260503052249 | 10 | 329 | 0.0 | 0.0 | 0.00 | 0.00 | 0.00 | 51 | 1011.8 |
| 20260503052129 | 10 | 329 | 0.0 | 0.0 | 0.00 | 0.00 | 0.00 | 50 | 1011.8 |
| 20260503052030 | 10 | 329 | 0.0 | 0.0 | 0.00 | 0.00 | 0.00 | 50 | 1011.8 |
| 20260503051930 | 10 | 329 | 0.0 | 0.0 | 0.00 | 0.00 | 0.00 | 50 | 1011.8 |
| 20260503051829 | 10 | 329 | 0.0 | 0.0 | 0.00 | 0.00 | 0.00 | 50 | 1011.8 |
| 20260503051734 | 10 | 329 | 0.0 | 0.0 | 0.00 | 0.00 | 0.00 | 50 | 1011.8 |
| 20260503051636 | 10 | 329 | 0.0 | 0.0 | 0.00 | 0.00 | 0.00 | 50 | 1011.8 |
| 20260503051539 | 10 | 317 | 0.0 | 0.0 | 0.00 | 0.00 | 0.00 | 50 | 1011.8 |
| 20260503051436 | 10 | 317 | 0.0 | 0.0 | 0.00 | 0.00 | 0.00 | 50 | 1011.8 |
| 20260503051337 | 10 | 317 | 0.0 | 0.0 | 0.00 | 0.00 | 0.00 | 50 | 1011.8 |
| 20260503051239 | 10 | 317 | 0.0 | 0.0 | 0.00 | 0.00 | 0.00 | 50 | 1011.8 |
| 20260503051127 | 10 | 317 | 0.0 | 0.0 | 0.00 | 0.00 | 0.00 | 49 | 1011.8 |
| 20260503051029 | 10 | 317 | 0.0 | 0.0 | 0.00 | 0.00 | 0.00 | 50 | 1011.8 |
| 20260503050930 | 10 | 317 | 0.0 | 0.0 | 0.00 | 0.00 | 0.00 | 49 | 1011.8 |
| 20260503050828 | 10 | 317 | 0.0 | 0.0 | 0.00 | 0.00 | 0.00 | 50 | 1011.8 |
| 20260503050754 | 10 | 317 | 0.0 | 0.0 | 0.00 | 0.00 | 0.00 | 50 | 1011.8 |
| 20260503050634 | 10 | 317 | 0.0 | 0.0 | 0.00 | 0.00 | 0.00 | 49 | 1011.8 |
| 20260503050536 | 10 | 317 | 0.0 | 0.0 | 0.00 | 0.00 | 0.00 | 49 | 1011.8 |
| 20260503050437 | 10 | 317 | 0.0 | 0.0 | 0.00 | 0.00 | 0.00 | 49 | 1011.8 |
| 20260503050339 | 10 | 317 | 0.0 | 0.0 | 0.00 | 0.00 | 0.00 | 49 | 1011.8 |
| 20260503050237 | 10 | 317 | 0.0 | 0.0 | 0.00 | 0.00 | 0.00 | 49 | 1011.8 |
| 20260503050137 | 10 | 317 | 0.0 | 0.0 | 0.00 | 0.00 | 0.00 | 49 | 1011.8 |
| 20260503050036 | 10 | 317 | 0.0 | 0.0 | 0.00 | 0.00 | 0.00 | 49 | 1011.8 |
| 20260503045940 | 10 | 317 | 0.0 | 0.0 | 0.00 | 0.00 | 0.00 | 51 | 1011.8 |
| 20260503045845 | 10 | 317 | 0.0 | 0.0 | 0.00 | 0.00 | 0.00 | 49 | 1012.1 |
| 20260503045728 | 10 | 317 | 0.0 | 0.0 | 0.00 | 0.00 | 0.00 | 49 | 1012.1 |
| 20260503045650 | 10 | 317 | 0.0 | 0.0 | 0.00 | 0.00 | 0.00 | 49 | 1012.1 |
| 20260503045530 | 10 | 317 | 0.0 | 0.0 | 0.00 | 0.00 | 0.00 | 49 | 1012.1 |
| 20260503045426 | 10 | 317 | 1.6 | 0.0 | 0.00 | 0.00 | 0.00 | 49 | 1012.1 |
| 20260503045328 | 10 | 317 | 1.6 | 0.0 | 0.00 | 0.00 | 0.00 | 49 | 1012.1 |
| 20260503045230 | 10 | 317 | 1.6 | 0.0 | 0.00 | 0.00 | 0.00 | 49 | 1012.1 |
| 20260503045139 | 10 | 317 | 0.0 | 0.0 | 0.00 | 0.00 | 0.00 | 49 | 1012.1 |
| 20260503045041 | 10 | 317 | 0.0 | 0.0 | 0.00 | 0.00 | 0.00 | 49 | 1012.1 |
| 20260503044942 | 10 | 317 | 0.0 | 0.0 | 0.00 | 0.00 | 0.00 | 49 | 1012.1 |
| 20260503044843 | 10 | 317 | 0.0 | 0.0 | 0.00 | 0.00 | 0.00 | 50 | 1012.1 |
| 20260503044805 | 10 | 317 | 0.0 | 0.0 | 0.00 | 0.00 | 0.00 | 49 | 1012.1 |
| 20260503044642 | 10 | 317 | 0.0 | 0.0 | 0.00 | 0.00 | 0.00 | 49 | 1012.1 |
| 20260503044545 | 10 | 325 | 0.0 | 0.0 | 0.00 | 0.00 | 0.00 | 49 | 1012.1 |
| 20260503044429 | 10 | 350 | 0.0 | 0.0 | 0.00 | 0.00 | 0.00 | 49 | 1012.1 |
| 20260503044353 | 10 | 355 | 0.0 | 0.0 | 0.00 | 0.00 | 0.00 | 49 | 1012.1 |
| 20260503044252 | 10 | 355 | 0.0 | 0.0 | 0.00 | 0.00 | 0.00 | 51 | 1012.1 |
| 20260503044135 | 10 | 355 | 0.0 | 0.0 | 0.00 | 0.00 | 0.00 | 50 | 1012.1 |
| 20260503044035 | 10 | 355 | 0.0 | 0.0 | 0.00 | 0.00 | 0.00 | 50 | 1012.1 |
| 20260503043955 | 10 | 355 | 0.0 | 0.0 | 0.00 | 0.00 | 0.00 | 49 | 1012.1 |
| 20260503043836 | 10 | 355 | 0.0 | 0.0 | 0.00 | 0.00 | 0.00 | 49 | 1012.1 |
| 20260503043737 | 10 | 355 | 0.0 | 0.0 | 0.00 | 0.00 | 0.00 | 48 | 1012.1 |
| 20260503043639 | 10 | 355 | 0.0 | 0.0 | 0.00 | 0.00 | 0.00 | 49 | 1012.1 |
| 20260503043540 | 10 | 355 | 0.0 | 0.0 | 0.00 | 0.00 | 0.00 | 49 | 1012.1 |
| 20260503043501 | 10 | 355 | 0.0 | 0.0 | 0.00 | 0.00 | 0.00 | 49 | 1012.1 |
| 20260503043341 | 10 | 355 | 0.0 | 0.0 | 0.00 | 0.00 | 0.00 | 49 | 1012.1 |
| 20260503043239 | 10 | 355 | 0.0 | 0.0 | 0.00 | 0.00 | 0.00 | 49 | 1012.1 |
| 20260503043141 | 10 | 355 | 0.0 | 0.0 | 0.00 | 0.00 | 0.00 | 49 | 1012.1 |
| 20260503043026 | 10 | 355 | 0.0 | 0.0 | 0.00 | 0.00 | 0.00 | 49 | 1012.1 |
| 20260503042927 | 10 | 355 | 0.0 | 0.0 | 0.00 | 0.00 | 0.00 | 49 | 1012.1 |
| 20260503042825 | 10 | 355 | 0.0 | 0.0 | 0.00 | 0.00 | 0.00 | 49 | 1012.1 |
| 20260503042726 | 10 | 6 | 0.0 | 0.0 | 0.00 | 0.00 | 0.00 | 49 | 1012.1 |
| 20260503042628 | 10 | 6 | 0.0 | 0.0 | 0.00 | 0.00 | 0.00 | 49 | 1012.1 |
| 20260503042530 | 10 | 6 | 0.0 | 0.0 | 0.00 | 0.00 | 0.00 | 49 | 1012.1 |
| 20260503042429 | 10 | 6 | 0.0 | 0.0 | 0.00 | 0.00 | 0.00 | 49 | 1012.1 |
| 20260503042334 | 10 | 6 | 0.0 | 0.0 | 0.00 | 0.00 | 0.00 | 49 | 1012.1 |
| 20260503042251 | 10 | 6 | 0.0 | 0.0 | 0.00 | 0.00 | 0.00 | 48 | 1012.1 |
| 20260503042132 | 10 | 7 | 0.0 | 0.0 | 0.00 | 0.00 | 0.00 | 49 | 1012.1 |
| 20260503042031 | 10 | 7 | 0.0 | 0.0 | 0.00 | 0.00 | 0.00 | 49 | 1012.1 |
| 20260503041932 | 10 | 7 | 0.0 | 0.0 | 0.00 | 0.00 | 0.00 | 50 | 1012.1 |
| 20260503041851 | 10 | 7 | 0.0 | 0.0 | 0.00 | 0.00 | 0.00 | 49 | 1012.1 |
| 20260503041731 | 10 | 7 | 0.0 | 0.0 | 0.00 | 0.00 | 0.00 | 50 | 1012.1 |
| 20260503041637 | 10 | 7 | 0.0 | 0.0 | 0.00 | 0.00 | 0.00 | 50 | 1012.1 |
| 20260503041539 | 10 | 7 | 0.0 | 0.0 | 0.00 | 0.00 | 0.00 | 49 | 1012.1 |
| 20260503041459 | 10 | 7 | 0.0 | 0.0 | 0.00 | 0.00 | 0.00 | 49 | 1012.1 |
| 20260503041341 | 10 | 7 | 0.0 | 0.0 | 0.00 | 0.00 | 0.00 | 49 | 1012.1 |
| 20260503041239 | 10 | 7 | 0.0 | 0.0 | 0.00 | 0.00 | 0.00 | 49 | 1012.1 |
| 20260503041140 | 10 | 7 | 0.0 | 0.0 | 0.00 | 0.00 | 0.00 | 49 | 1012.1 |
| 20260503041039 | 10 | 7 | 0.0 | 0.0 | 0.00 | 0.00 | 0.00 | 48 | 1012.1 |
| 20260503040943 | 10 | 7 | 0.0 | 0.0 | 0.00 | 0.00 | 0.00 | 49 | 1012.1 |
| 20260503040824 | 10 | 1 | 0.0 | 0.0 | 0.00 | 0.00 | 0.00 | 49 | 1012.1 |
| 20260503040747 | 10 | 1 | 0.0 | 0.0 | 0.00 | 0.00 | 0.00 | 49 | 1012.1 |
| 20260503040712 | 10 | 1 | 0.0 | 0.0 | 0.00 | 0.00 | 0.00 | 49 | 1012.1 |
| 20260503040625 | 10 | 1 | 0.0 | 0.0 | 0.00 | 0.00 | 0.00 | 49 | 1012.1 |
| 20260503040424 | 10 | 1 | 0.0 | 0.0 | 0.00 | 0.00 | 0.00 | 49 | 1012.1 |
| 20260503040325 | 10 | 1 | 0.0 | 0.0 | 0.00 | 0.00 | 0.00 | 50 | 1012.1 |
| 20260503040232 | 10 | 3 | 0.0 | 0.0 | 0.00 | 0.00 | 0.00 | 49 | 1012.1 |
| 20260503040156 | 10 | 3 | 0.0 | 0.0 | 0.00 | 0.00 | 0.00 | 49 | 1012.1 |
| 20260503040052 | 10 | 3 | 0.0 | 0.0 | 0.00 | 0.00 | 0.00 | 49 | 1012.1 |
| 20260503035931 | 10 | 3 | 0.0 | 0.0 | 0.00 | 0.00 | 0.00 | 49 | 1012.1 |
| 20260503035829 | 10 | 3 | 0.0 | 0.0 | 0.00 | 0.00 | 0.00 | 49 | 1012.1 |
| 20260503035729 | 10 | 3 | 0.0 | 0.0 | 0.00 | 0.00 | 0.00 | 49 | 1012.1 |
| 20260503035627 | 10 | 3 | 0.0 | 0.0 | 0.00 | 0.00 | 0.00 | 50 | 1012.1 |
| 20260503035533 | 10 | 3 | 0.0 | 0.0 | 0.00 | 0.00 | 0.00 | 50 | 1012.1 |
| 20260503035430 | 10 | 3 | 0.0 | 0.0 | 0.00 | 0.00 | 0.00 | 51 | 1012.1 |
| 20260503035332 | 10 | 3 | 0.0 | 0.0 | 0.00 | 0.00 | 0.00 | 49 | 1012.1 |
| 20260503035249 | 10 | 3 | 0.0 | 0.0 | 0.00 | 0.00 | 0.00 | 49 | 1012.1 |
| 20260503035149 | 10 | 3 | 0.0 | 0.0 | 0.00 | 0.00 | 0.00 | 49 | 1012.1 |
| 20260503035029 | 10 | 3 | 0.0 | 0.0 | 0.00 | 0.00 | 0.00 | 49 | 1012.1 |
| 20260503034930 | 10 | 3 | 0.0 | 0.0 | 0.00 | 0.00 | 0.00 | 49 | 1012.1 |
| 20260503034830 | 10 | 3 | 0.0 | 0.0 | 0.00 | 0.00 | 0.00 | 49 | 1012.1 |
| 20260503034735 | 10 | 3 | 0.0 | 0.0 | 0.00 | 0.00 | 0.00 | 49 | 1012.1 |
| 20260503034634 | 10 | 3 | 0.0 | 0.0 | 0.00 | 0.00 | 0.00 | 49 | 1012.1 |
| 20260503034535 | 10 | 3 | 0.0 | 0.0 | 0.00 | 0.00 | 0.00 | 49 | 1012.1 |
| 20260503034436 | 10 | 3 | 0.0 | 0.0 | 0.00 | 0.00 | 0.00 | 49 | 1012.1 |
| 20260503034338 | 10 | 3 | 0.0 | 0.0 | 0.00 | 0.00 | 0.00 | 50 | 1012.1 |
| 20260503034239 | 10 | 4 | 0.0 | 0.0 | 0.00 | 0.00 | 0.00 | 50 | 1012.1 |
| 20260503034201 | 10 | 4 | 0.0 | 0.0 | 0.00 | 0.00 | 0.00 | 49 | 1012.1 |
| 20260503034041 | 10 | 5 | 0.0 | 0.0 | 0.00 | 0.00 | 0.00 | 49 | 1012.1 |
| 20260503033942 | 10 | 7 | 0.0 | 0.0 | 0.00 | 0.00 | 0.00 | 50 | 1012.1 |
| 20260503033840 | 10 | 7 | 0.0 | 0.0 | 0.00 | 0.00 | 0.00 | 50 | 1012.1 |
| 20260503033724 | 10 | 7 | 0.0 | 0.0 | 0.00 | 0.00 | 0.00 | 49 | 1012.1 |
| 20260503033625 | 10 | 8 | 0.0 | 0.0 | 0.00 | 0.00 | 0.00 | 50 | 1012.1 |
| 20260503033528 | 10 | 8 | 0.0 | 0.0 | 0.00 | 0.00 | 0.00 | 50 | 1012.1 |
| 20260503033450 | 10 | 8 | 0.0 | 0.0 | 0.00 | 0.00 | 0.00 | 50 | 1012.1 |
| 20260503033352 | 10 | 8 | 0.0 | 0.0 | 0.00 | 0.00 | 0.00 | 49 | 1012.1 |
| 20260503033232 | 10 | 7 | 0.0 | 0.0 | 0.00 | 0.00 | 0.00 | 49 | 1012.1 |
| 20260503033133 | 10 | 7 | 0.0 | 0.0 | 0.00 | 0.00 | 0.00 | 49 | 1012.1 |
| 20260503033030 | 10 | 7 | 0.0 | 0.0 | 0.00 | 0.00 | 0.00 | 48 | 1012.1 |
| 20260503032931 | 10 | 7 | 0.0 | 0.0 | 0.00 | 0.00 | 0.00 | 50 | 1012.1 |
| 20260503032829 | 11 | 8 | 0.0 | 0.0 | 0.00 | 0.00 | 0.00 | 49 | 1012.1 |
| 20260503032736 | 10 | 9 | 0.0 | 0.0 | 0.00 | 0.00 | 0.00 | 49 | 1012.1 |
| 20260503032701 | 10 | 9 | 0.0 | 0.0 | 0.00 | 0.00 | 0.00 | 49 | 1012.1 |
| 20260503032541 | 11 | 9 | 0.0 | 0.0 | 0.00 | 0.00 | 0.00 | 48 | 1012.1 |
| 20260503032438 | 11 | 9 | 0.0 | 0.0 | 0.00 | 0.00 | 0.00 | 49 | 1012.1 |
| 20260503032343 | 11 | 9 | 0.0 | 0.0 | 0.00 | 0.00 | 0.00 | 49 | 1012.1 |
| 20260503032225 | 11 | 9 | 0.0 | 0.0 | 0.00 | 0.00 | 0.00 | 50 | 1012.1 |
| 20260503032126 | 11 | 9 | 0.0 | 0.0 | 0.00 | 0.00 | 0.00 | 48 | 1012.1 |
| 20260503032052 | 11 | 9 | 0.0 | 0.0 | 0.00 | 0.00 | 0.00 | 48 | 1012.1 |
| 20260503031956 | 11 | 9 | 0.0 | 0.0 | 0.00 | 0.00 | 0.00 | 48 | 1012.1 |
| 20260503031833 | 11 | 9 | 0.0 | 0.0 | 0.00 | 0.00 | 0.00 | 48 | 1012.1 |
| 20260503031736 | 11 | 9 | 0.0 | 0.0 | 0.00 | 0.00 | 0.00 | 49 | 1012.1 |
| 20260503031634 | 11 | 9 | 0.0 | 0.0 | 0.00 | 0.00 | 0.00 | 49 | 1012.1 |
| 20260503031536 | 11 | 9 | 0.0 | 0.0 | 0.00 | 0.00 | 0.00 | 48 | 1012.1 |
| 20260503031433 | 11 | 9 | 0.0 | 0.0 | 0.00 | 0.00 | 0.00 | 49 | 1012.1 |
| 20260503031338 | 11 | 9 | 0.0 | 0.0 | 0.00 | 0.00 | 0.00 | 48 | 1012.1 |
| 20260503031237 | 11 | 9 | 0.0 | 0.0 | 0.00 | 0.00 | 0.00 | 48 | 1012.1 |
| 20260503031140 | 11 | 9 | 0.0 | 0.0 | 0.00 | 0.00 | 0.00 | 48 | 1012.1 |
| 20260503031038 | 11 | 9 | 0.0 | 0.0 | 0.00 | 0.00 | 0.00 | 48 | 1012.1 |
| 20260503030941 | 11 | 9 | 0.0 | 0.0 | 0.00 | 0.00 | 0.00 | 48 | 1012.1 |
| 20260503030840 | 11 | 9 | 0.0 | 0.0 | 0.00 | 0.00 | 0.00 | 48 | 1012.1 |
| 20260503030725 | 11 | 9 | 0.0 | 0.0 | 0.00 | 0.00 | 0.00 | 48 | 1012.1 |
| 20260503030626 | 11 | 9 | 0.0 | 0.0 | 0.00 | 0.00 | 0.00 | 48 | 1012.1 |
| 20260503030530 | 11 | 9 | 0.0 | 0.0 | 0.00 | 0.00 | 0.00 | 49 | 1012.1 |
| 20260503030427 | 11 | 9 | 0.0 | 0.0 | 0.00 | 0.00 | 0.00 | 48 | 1012.1 |
| 20260503030328 | 11 | 9 | 0.0 | 0.0 | 0.00 | 0.00 | 0.00 | 49 | 1012.1 |
| 20260503030228 | 11 | 9 | 0.0 | 0.0 | 0.00 | 0.00 | 0.00 | 49 | 1012.1 |
| 20260503030130 | 11 | 9 | 0.0 | 0.0 | 0.00 | 0.00 | 0.00 | 48 | 1012.1 |
| 20260503030036 | 11 | 9 | 0.0 | 0.0 | 0.00 | 0.00 | 0.00 | 47 | 1012.1 |
| 20260503025935 | 11 | 15 | 0.0 | 0.0 | 0.00 | 0.00 | 0.00 | 49 | 1012.1 |
| 20260503025833 | 11 | 15 | 0.0 | 0.0 | 0.00 | 0.00 | 0.00 | 49 | 1012.1 |
| 20260503025736 | 11 | 15 | 0.0 | 0.0 | 0.00 | 0.00 | 0.00 | 49 | 1012.1 |
| 20260503025634 | 11 | 16 | 0.0 | 0.0 | 0.00 | 0.00 | 0.00 | 49 | 1012.1 |
| 20260503025536 | 11 | 16 | 0.0 | 0.0 | 0.00 | 0.00 | 0.00 | 48 | 1012.1 |
| 20260503025440 | 11 | 16 | 0.0 | 0.0 | 0.00 | 0.00 | 0.00 | 49 | 1012.1 |
| 20260503025340 | 11 | 16 | 0.0 | 0.0 | 0.00 | 0.00 | 0.00 | 47 | 1012.1 |
| 20260503025305 | 11 | 16 | 0.0 | 0.0 | 0.00 | 0.00 | 0.00 | 47 | 1012.1 |
| 20260503025145 | 11 | 16 | 0.0 | 0.0 | 0.00 | 0.00 | 0.00 | 48 | 1012.1 |
| 20260503025108 | 11 | 16 | 0.0 | 0.0 | 0.00 | 0.00 | 0.00 | 49 | 1012.1 |
| 20260503025008 | 11 | 16 | 0.0 | 0.0 | 0.00 | 0.00 | 0.00 | 48 | 1012.1 |
| 20260503024824 | 11 | 18 | 0.0 | 0.0 | 0.00 | 0.00 | 0.00 | 48 | 1012.1 |
| 20260503024747 | 11 | 18 | 0.0 | 0.0 | 0.00 | 0.00 | 0.00 | 48 | 1012.1 |
| 20260503024629 | 11 | 18 | 0.0 | 0.0 | 0.00 | 0.00 | 0.00 | 48 | 1012.1 |
| 20260503024531 | 11 | 18 | 0.0 | 0.0 | 0.00 | 0.00 | 0.00 | 48 | 1012.1 |
| 20260503024448 | 11 | 18 | 0.0 | 0.0 | 0.00 | 0.00 | 0.00 | 49 | 1012.1 |
| 20260503024329 | 11 | 18 | 0.0 | 0.0 | 0.00 | 0.00 | 0.00 | 50 | 1012.1 |
| 20260503024227 | 11 | 18 | 0.0 | 0.0 | 0.00 | 0.00 | 0.00 | 48 | 1012.1 |
| 20260503024128 | 11 | 18 | 0.0 | 0.0 | 0.00 | 0.00 | 0.00 | 48 | 1012.1 |
| 20260503024026 | 11 | 18 | 0.0 | 0.0 | 0.00 | 0.00 | 0.00 | 47 | 1012.1 |
| 20260503023931 | 11 | 18 | 0.0 | 0.0 | 0.00 | 0.00 | 0.00 | 47 | 1012.1 |
| 20260503023828 | 11 | 18 | 0.0 | 0.0 | 0.00 | 0.00 | 0.00 | 47 | 1012.1 |
| 20260503023730 | 11 | 18 | 0.0 | 0.0 | 0.00 | 0.00 | 0.00 | 48 | 1012.1 |
| 20260503023627 | 11 | 18 | 0.0 | 0.0 | 0.00 | 0.00 | 0.00 | 48 | 1012.1 |
| 20260503023529 | 11 | 18 | 0.0 | 0.0 | 0.00 | 0.00 | 0.00 | 49 | 1012.1 |
| 20260503023426 | 11 | 18 | 0.0 | 0.0 | 0.00 | 0.00 | 0.00 | 47 | 1012.1 |
| 20260503023332 | 11 | 18 | 0.0 | 0.0 | 0.00 | 0.00 | 0.00 | 47 | 1012.1 |
| 20260503023229 | 11 | 18 | 0.0 | 0.0 | 0.00 | 0.00 | 0.00 | 47 | 1012.1 |
| 20260503023131 | 11 | 18 | 0.0 | 0.0 | 0.00 | 0.00 | 0.00 | 48 | 1012.1 |
| 20260503023029 | 11 | 18 | 0.0 | 0.0 | 0.00 | 0.00 | 0.00 | 47 | 1012.1 |
| 20260503022929 | 11 | 18 | 0.0 | 0.0 | 0.00 | 0.00 | 0.00 | 47 | 1012.1 |
| 20260503022848 | 11 | 18 | 0.0 | 0.0 | 0.00 | 0.00 | 0.00 | 48 | 1012.1 |
| 20260503022732 | 11 | 18 | 0.0 | 0.0 | 0.00 | 0.00 | 0.00 | 48 | 1012.1 |
| 20260503022633 | 11 | 21 | 0.0 | 0.0 | 0.00 | 0.00 | 0.00 | 47 | 1012.1 |
| 20260503022535 | 11 | 21 | 0.0 | 0.0 | 0.00 | 0.00 | 0.00 | 47 | 1012.1 |
| 20260503022432 | 11 | 21 | 0.0 | 0.0 | 0.00 | 0.00 | 0.00 | 48 | 1012.1 |
| 20260503022334 | 11 | 21 | 0.0 | 0.0 | 0.00 | 0.00 | 0.00 | 48 | 1012.1 |
| 20260503022233 | 11 | 21 | 0.0 | 0.0 | 0.00 | 0.00 | 0.00 | 48 | 1012.1 |
| 20260503022134 | 11 | 21 | 0.0 | 0.0 | 0.00 | 0.00 | 0.00 | 48 | 1012.1 |
| 20260503022033 | 11 | 21 | 0.0 | 0.0 | 0.00 | 0.00 | 0.00 | 48 | 1012.1 |
| 20260503021937 | 11 | 22 | 0.0 | 0.0 | 0.00 | 0.00 | 0.00 | 48 | 1012.1 |
| 20260503021835 | 11 | 22 | 0.0 | 0.0 | 0.00 | 0.00 | 0.00 | 48 | 1012.1 |
| 20260503021736 | 11 | 22 | 0.0 | 0.0 | 0.00 | 0.00 | 0.00 | 48 | 1012.1 |
| 20260503021636 | 11 | 24 | 0.0 | 0.0 | 0.00 | 0.00 | 0.00 | 49 | 1012.1 |
| 20260503021538 | 11 | 24 | 0.0 | 0.0 | 0.00 | 0.00 | 0.00 | 50 | 1012.1 |
| 20260503021440 | 11 | 24 | 0.0 | 0.0 | 0.00 | 0.00 | 0.00 | 50 | 1012.1 |
| 20260503021348 | 11 | 24 | 0.0 | 0.0 | 0.00 | 0.00 | 0.00 | 48 | 1012.1 |
| 20260503021248 | 11 | 24 | 0.0 | 0.0 | 0.00 | 0.00 | 0.00 | 49 | 1012.1 |
| 20260503021128 | 11 | 24 | 0.0 | 0.0 | 0.00 | 0.00 | 0.00 | 49 | 1012.1 |
| 20260503021027 | 11 | 24 | 0.0 | 0.0 | 0.00 | 0.00 | 0.00 | 48 | 1012.1 |
| 20260503020928 | 11 | 24 | 0.0 | 0.0 | 0.00 | 0.00 | 0.00 | 48 | 1012.1 |
| 20260503020845 | 11 | 24 | 0.0 | 0.0 | 0.00 | 0.00 | 0.00 | 49 | 1012.1 |
| 20260503020747 | 11 | 24 | 0.0 | 0.0 | 0.00 | 0.00 | 0.00 | 49 | 1012.1 |
| 20260503020625 | 11 | 24 | 0.0 | 0.0 | 0.00 | 0.00 | 0.00 | 48 | 1012.1 |
| 20260503020551 | 11 | 24 | 0.0 | 0.0 | 0.00 | 0.00 | 0.00 | 49 | 1012.1 |
| 20260503020427 | 11 | 24 | 0.0 | 0.0 | 0.00 | 0.00 | 0.00 | 50 | 1012.1 |
| 20260503020348 | 11 | 24 | 0.0 | 0.0 | 0.00 | 0.00 | 0.00 | 49 | 1012.1 |
| 20260503020226 | 11 | 24 | 0.0 | 0.0 | 0.00 | 0.00 | 0.00 | 49 | 1012.1 |
| 20260503020128 | 11 | 24 | 0.0 | 0.0 | 0.00 | 0.00 | 0.00 | 50 | 1012.1 |
| 20260503020026 | 11 | 24 | 0.0 | 0.0 | 0.00 | 0.00 | 0.00 | 48 | 1012.1 |
| 20260503015926 | 11 | 24 | 0.0 | 0.0 | 0.00 | 0.00 | 0.00 | 48 | 1012.1 |
| 20260503015832 | 11 | 24 | 0.0 | 0.0 | 0.00 | 0.00 | 0.00 | 48 | 1012.1 |
| 20260503015733 | 11 | 24 | 0.0 | 0.0 | 0.00 | 0.00 | 0.00 | 48 | 1012.1 |
| 20260503015630 | 11 | 24 | 0.0 | 0.0 | 0.00 | 0.00 | 0.00 | 49 | 1012.1 |
| 20260503015533 | 11 | 24 | 0.0 | 0.0 | 0.00 | 0.00 | 0.00 | 49 | 1012.1 |
| 20260503015430 | 11 | 24 | 0.0 | 0.0 | 0.00 | 0.00 | 0.00 | 48 | 1012.1 |
| 20260503015331 | 11 | 24 | 0.0 | 0.0 | 0.00 | 0.00 | 0.00 | 48 | 1012.1 |
| 20260503015232 | 11 | 24 | 0.0 | 0.0 | 0.00 | 0.00 | 0.00 | 49 | 1012.1 |
| 20260503015142 | 12 | 24 | 0.0 | 0.0 | 0.00 | 0.00 | 0.00 | 49 | 1012.1 |
| 20260503015044 | 12 | 24 | 0.0 | 0.0 | 0.00 | 0.00 | 0.00 | 50 | 1012.1 |
| 20260503015005 | 12 | 24 | 0.0 | 0.0 | 0.00 | 0.00 | 0.00 | 50 | 1012.1 |
| 20260503014841 | 12 | 24 | 0.0 | 0.0 | 0.00 | 0.00 | 0.00 | 49 | 1012.1 |
| 20260503014742 | 12 | 24 | 0.0 | 0.0 | 0.00 | 0.00 | 0.00 | 47 | 1012.1 |
| 20260503014641 | 12 | 24 | 0.0 | 0.0 | 0.00 | 0.00 | 0.00 | 47 | 1012.1 |
| 20260503014543 | 12 | 24 | 0.0 | 0.0 | 0.00 | 0.00 | 0.00 | 48 | 1012.1 |
| 20260503014424 | 12 | 24 | 0.0 | 0.0 | 0.00 | 0.00 | 0.00 | 48 | 1012.1 |
| 20260503014325 | 12 | 24 | 0.0 | 0.0 | 0.00 | 0.00 | 0.00 | 48 | 1011.9 |
| 20260503014227 | 12 | 24 | 0.0 | 0.0 | 0.00 | 0.00 | 0.00 | 49 | 1011.9 |
| 20260503014129 | 12 | 24 | 0.0 | 0.0 | 0.00 | 0.00 | 0.00 | 49 | 1011.9 |
| 20260503014027 | 12 | 24 | 0.0 | 0.0 | 0.00 | 0.00 | 0.00 | 47 | 1011.9 |
| 20260503013928 | 12 | 24 | 0.0 | 0.0 | 0.00 | 0.00 | 0.00 | 47 | 1011.9 |
| 20260503013831 | 12 | 24 | 0.0 | 0.0 | 0.00 | 0.00 | 0.00 | 48 | 1011.9 |
| 20260503013733 | 12 | 24 | 0.0 | 0.0 | 0.00 | 0.00 | 0.00 | 48 | 1011.9 |
| 20260503013634 | 12 | 24 | 0.0 | 0.0 | 0.00 | 0.00 | 0.00 | 47 | 1011.9 |
| 20260503013536 | 12 | 24 | 0.0 | 0.0 | 0.00 | 0.00 | 0.00 | 48 | 1011.9 |
| 20260503013432 | 12 | 24 | 0.0 | 0.0 | 0.00 | 0.00 | 0.00 | 48 | 1011.9 |
| 20260503013334 | 12 | 24 | 0.0 | 0.0 | 0.00 | 0.00 | 0.00 | 48 | 1011.9 |
| 20260503013238 | 12 | 24 | 0.0 | 0.0 | 0.00 | 0.00 | 0.00 | 48 | 1011.9 |
| 20260503013139 | 12 | 24 | 0.0 | 0.0 | 0.00 | 0.00 | 0.00 | 48 | 1011.9 |
| 20260503013038 | 12 | 24 | 0.0 | 0.0 | 0.00 | 0.00 | 0.00 | 48 | 1011.9 |
| 20260503012938 | 12 | 24 | 0.0 | 0.0 | 0.00 | 0.00 | 0.00 | 50 | 1011.9 |
| 20260503012835 | 12 | 24 | 0.0 | 0.0 | 0.00 | 0.00 | 0.00 | 47 | 1012.1 |
| 20260503012737 | 12 | 24 | 0.0 | 0.0 | 0.00 | 0.00 | 0.00 | 47 | 1012.1 |
| 20260503012634 | 12 | 25 | 0.0 | 0.0 | 0.00 | 0.00 | 0.00 | 47 | 1012.1 |
| 20260503012541 | 12 | 25 | 0.0 | 0.0 | 0.00 | 0.00 | 0.00 | 47 | 1012.1 |
| 20260503012438 | 12 | 25 | 0.0 | 0.0 | 0.00 | 0.00 | 0.00 | 47 | 1012.1 |
| 20260503012338 | 12 | 25 | 0.0 | 0.0 | 0.00 | 0.00 | 0.00 | 47 | 1012.1 |
| 20260503012301 | 12 | 25 | 0.0 | 0.0 | 0.00 | 0.00 | 0.00 | 47 | 1012.1 |
| 20260503012141 | 12 | 25 | 0.0 | 0.0 | 0.00 | 0.00 | 0.00 | 48 | 1012.1 |
| 20260503012043 | 12 | 25 | 0.0 | 0.0 | 0.00 | 0.00 | 0.00 | 47 | 1012.1 |
| 20260503011928 | 12 | 25 | 0.0 | 0.0 | 0.00 | 0.00 | 0.00 | 47 | 1012.1 |
| 20260503011825 | 12 | 25 | 0.0 | 0.0 | 0.00 | 0.00 | 0.00 | 47 | 1012.1 |
| 20260503011727 | 12 | 25 | 0.0 | 0.0 | 0.00 | 0.00 | 0.00 | 47 | 1012.1 |
| 20260503011628 | 12 | 25 | 0.0 | 0.0 | 0.00 | 0.00 | 0.00 | 48 | 1012.1 |
| 20260503011531 | 12 | 25 | 0.0 | 0.0 | 0.00 | 0.00 | 0.00 | 47 | 1012.1 |
| 20260503011430 | 12 | 25 | 0.0 | 0.0 | 0.00 | 0.00 | 0.00 | 47 | 1012.1 |
| 20260503011332 | 12 | 25 | 0.0 | 0.0 | 0.00 | 0.00 | 0.00 | 46 | 1011.8 |
| 20260503011235 | 12 | 25 | 0.0 | 0.0 | 0.00 | 0.00 | 0.00 | 48 | 1011.8 |
| 20260503011135 | 12 | 25 | 0.0 | 0.0 | 0.00 | 0.00 | 0.00 | 47 | 1011.8 |
| 20260503011034 | 12 | 26 | 0.0 | 0.0 | 0.00 | 0.00 | 0.00 | 46 | 1011.8 |
| 20260503010934 | 12 | 26 | 0.0 | 0.0 | 0.00 | 0.00 | 0.00 | 46 | 1011.8 |
| 20260503010836 | 12 | 26 | 0.0 | 0.0 | 0.00 | 0.00 | 0.00 | 48 | 1011.8 |
| 20260503010738 | 12 | 26 | 0.0 | 0.0 | 0.00 | 0.00 | 0.00 | 46 | 1011.8 |
| 20260503010624 | 12 | 26 | 0.0 | 0.0 | 0.00 | 0.00 | 0.00 | 46 | 1011.8 |
| 20260503010526 | 12 | 26 | 0.0 | 0.0 | 0.00 | 0.00 | 0.00 | 47 | 1011.8 |
| 20260503010446 | 12 | 26 | 0.0 | 0.0 | 0.00 | 0.00 | 0.00 | 47 | 1011.8 |
| 20260503010326 | 12 | 26 | 0.0 | 0.0 | 0.00 | 0.00 | 0.00 | 46 | 1011.8 |
| 20260503010228 | 12 | 26 | 0.0 | 0.0 | 0.00 | 0.00 | 0.00 | 46 | 1011.8 |
| 20260503010129 | 12 | 26 | 0.0 | 0.0 | 0.00 | 0.00 | 0.00 | 46 | 1011.8 |
| 20260503010052 | 12 | 26 | 0.0 | 0.0 | 0.00 | 0.00 | 0.00 | 46 | 1011.8 |
| 20260503005934 | 12 | 26 | 0.0 | 0.0 | 0.00 | 0.00 | 0.00 | 46 | 1011.8 |
| 20260503005835 | 12 | 26 | 0.0 | 0.0 | 0.00 | 0.00 | 0.00 | 46 | 1011.6 |
| 20260503005735 | 12 | 26 | 0.0 | 0.0 | 0.00 | 0.00 | 0.00 | 46 | 1011.6 |
| 20260503005634 | 12 | 26 | 0.0 | 0.0 | 0.00 | 0.00 | 0.00 | 48 | 1011.6 |
| 20260503005536 | 12 | 26 | 0.0 | 0.0 | 0.00 | 0.00 | 0.00 | 48 | 1011.6 |
| 20260503005434 | 12 | 26 | 0.0 | 0.0 | 0.00 | 0.00 | 0.00 | 46 | 1011.6 |
| 20260503005335 | 12 | 26 | 0.0 | 0.0 | 0.00 | 0.00 | 0.00 | 46 | 1011.6 |
| 20260503005236 | 12 | 26 | 0.0 | 0.0 | 0.00 | 0.00 | 0.00 | 45 | 1011.6 |
| 20260503005138 | 12 | 26 | 0.0 | 0.0 | 0.00 | 0.00 | 0.00 | 46 | 1011.6 |
| 20260503005037 | 12 | 30 | 0.0 | 0.0 | 0.00 | 0.00 | 0.00 | 46 | 1011.6 |
| 20260503004937 | 12 | 30 | 0.0 | 0.0 | 0.00 | 0.00 | 0.00 | 46 | 1011.6 |
| 20260503004835 | 12 | 30 | 0.0 | 0.0 | 0.00 | 0.00 | 0.00 | 46 | 1011.6 |
| 20260503004738 | 12 | 30 | 0.0 | 0.0 | 0.00 | 0.00 | 0.00 | 46 | 1011.6 |
| 20260503004643 | 12 | 30 | 0.0 | 0.0 | 0.00 | 0.00 | 0.00 | 46 | 1011.6 |
| 20260503004546 | 12 | 30 | 0.0 | 0.0 | 0.00 | 0.00 | 0.00 | 46 | 1011.6 |
| 20260503004443 | 12 | 30 | 0.0 | 0.0 | 0.00 | 0.00 | 0.00 | 46 | 1011.6 |
| 20260503004345 | 12 | 30 | 0.0 | 0.0 | 0.00 | 0.00 | 0.00 | 47 | 1011.5 |
| 20260503004243 | 12 | 30 | 0.0 | 0.0 | 0.00 | 0.00 | 0.00 | 46 | 1011.5 |
| 20260503004145 | 12 | 30 | 0.0 | 0.0 | 0.00 | 0.00 | 0.00 | 46 | 1011.5 |
| 20260503004027 | 12 | 311 | 0.0 | 0.0 | 0.00 | 0.00 | 0.00 | 47 | 1011.5 |
| 20260503003926 | 13 | 311 | 0.0 | 0.0 | 0.00 | 0.00 | 0.00 | 47 | 1011.5 |
| 20260503003849 | 13 | 311 | 0.0 | 0.0 | 0.00 | 0.00 | 0.00 | 46 | 1011.5 |
| 20260503003730 | 13 | 311 | 0.0 | 0.0 | 0.00 | 0.00 | 0.00 | 46 | 1011.5 |
| 20260503003628 | 13 | 311 | 0.0 | 0.0 | 0.00 | 0.00 | 0.00 | 45 | 1011.5 |
| 20260503003533 | 13 | 311 | 0.0 | 0.0 | 0.00 | 0.00 | 0.00 | 45 | 1011.5 |
| 20260503003430 | 13 | 311 | 0.0 | 0.0 | 0.00 | 0.00 | 0.00 | 44 | 1011.5 |
| 20260503003336 | 13 | 311 | 0.0 | 0.0 | 0.00 | 0.00 | 0.00 | 45 | 1011.5 |
| 20260503003234 | 13 | 311 | 0.0 | 0.0 | 0.00 | 0.00 | 0.00 | 44 | 1011.5 |
| 20260503003135 | 13 | 311 | 0.0 | 0.0 | 0.00 | 0.00 | 0.00 | 44 | 1011.5 |
| 20260503003034 | 13 | 311 | 0.0 | 0.0 | 0.00 | 0.00 | 0.00 | 45 | 1011.5 |
| 20260503002935 | 13 | 311 | 0.0 | 0.0 | 0.00 | 0.00 | 0.00 | 44 | 1011.5 |
| 20260503002832 | 13 | 311 | 0.0 | 0.0 | 0.00 | 0.00 | 0.00 | 45 | 1011.2 |
| 20260503002735 | 13 | 311 | 0.0 | 0.0 | 0.00 | 0.00 | 0.00 | 44 | 1011.2 |
| 20260503002656 | 13 | 311 | 0.0 | 0.0 | 0.00 | 0.00 | 0.00 | 45 | 1011.2 |
| 20260503002536 | 13 | 311 | 0.0 | 0.0 | 0.00 | 0.00 | 0.00 | 45 | 1011.2 |
| 20260503002454 | 13 | 311 | 0.0 | 0.0 | 0.00 | 0.00 | 0.00 | 45 | 1011.2 |
| 20260503002355 | 13 | 311 | 0.0 | 0.0 | 0.00 | 0.00 | 0.00 | 45 | 1011.2 |
| 20260503002252 | 13 | 311 | 0.0 | 0.0 | 0.00 | 0.00 | 0.00 | 44 | 1011.2 |
| 20260503002133 | 13 | 311 | 0.0 | 0.0 | 0.00 | 0.00 | 0.00 | 45 | 1011.2 |
| 20260503002031 | 13 | 311 | 0.0 | 0.0 | 0.00 | 0.00 | 0.00 | 45 | 1011.2 |
| 20260503001933 | 13 | 311 | 0.0 | 0.0 | 0.00 | 0.00 | 0.00 | 44 | 1011.2 |
| 20260503001834 | 13 | 311 | 0.0 | 0.0 | 0.00 | 0.00 | 0.00 | 44 | 1011.2 |
| 20260503001736 | 13 | 311 | 0.0 | 0.0 | 0.00 | 0.00 | 0.00 | 44 | 1011.2 |
| 20260503001633 | 13 | 311 | 0.0 | 0.0 | 0.00 | 0.00 | 0.00 | 44 | 1011.2 |
| 20260503001536 | 13 | 311 | 0.0 | 0.0 | 0.00 | 0.00 | 0.00 | 44 | 1011.2 |
| 20260503001432 | 13 | 311 | 0.0 | 0.0 | 0.00 | 0.00 | 0.00 | 44 | 1011.2 |
| 20260503001335 | 13 | 311 | 0.0 | 0.0 | 0.00 | 0.00 | 0.00 | 44 | 1011.2 |
| 20260503001236 | 13 | 311 | 0.0 | 0.0 | 0.00 | 0.00 | 0.00 | 43 | 1011.2 |
| 20260503001143 | 13 | 311 | 0.0 | 0.0 | 0.00 | 0.00 | 0.00 | 44 | 1011.2 |
| 20260503001103 | 13 | 311 | 0.0 | 0.0 | 0.00 | 0.00 | 0.00 | 43 | 1011.2 |
| 20260503000943 | 13 | 311 | 0.0 | 0.0 | 0.00 | 0.00 | 0.00 | 43 | 1011.2 |
| 20260503000843 | 13 | 311 | 0.0 | 0.0 | 0.00 | 0.00 | 0.00 | 43 | 1011.2 |
| 20260503000725 | 13 | 311 | 0.0 | 0.0 | 0.00 | 0.00 | 0.00 | 43 | 1011.2 |
| 20260503000626 | 13 | 311 | 0.0 | 0.0 | 0.00 | 0.00 | 0.00 | 44 | 1011.2 |
| 20260503000533 | 13 | 306 | 0.0 | 0.0 | 0.00 | 0.00 | 0.00 | 43 | 1011.2 |
| 20260503000449 | 13 | 306 | 0.0 | 0.0 | 0.00 | 0.00 | 0.00 | 44 | 1011.2 |
| 20260503000330 | 13 | 306 | 0.0 | 0.0 | 0.00 | 0.00 | 0.00 | 43 | 1011.2 |
| 20260503000229 | 13 | 306 | 0.0 | 0.0 | 0.00 | 0.00 | 0.00 | 45 | 1011.2 |
| 20260503000133 | 13 | 306 | 0.0 | 0.0 | 0.00 | 0.00 | 0.00 | 44 | 1011.2 |
| 20260503000034 | 13 | 306 | 0.0 | 0.0 | 0.00 | 0.00 | 0.00 | 45 | 1011.2 |
| 20260502235934 | 13 | 306 | 0.0 | 0.0 | 0.00 | 0.00 | 0.00 | 44 | 1011.2 |
| 20260502235857 | 13 | 306 | 0.0 | 0.0 | 0.00 | 0.00 | 0.00 | 44 | 1011.1 |
| 20260502235742 | 13 | 306 | 0.0 | 0.0 | 0.00 | 0.00 | 0.00 | 44 | 1011.1 |
| 20260502235639 | 13 | 306 | 0.0 | 0.0 | 0.00 | 0.00 | 0.00 | 44 | 1011.1 |
| 20260502235541 | 13 | 306 | 0.0 | 0.0 | 0.00 | 0.00 | 0.00 | 43 | 1011.1 |
| 20260502235437 | 13 | 306 | 0.0 | 0.0 | 0.00 | 0.00 | 0.00 | 43 | 1011.1 |
| 20260502235340 | 13 | 306 | 0.0 | 0.0 | 0.00 | 0.00 | 0.00 | 43 | 1011.1 |
| 20260502235239 | 13 | 306 | 0.0 | 0.0 | 0.00 | 0.00 | 0.00 | 43 | 1011.1 |
| 20260502235144 | 13 | 306 | 0.0 | 0.0 | 0.00 | 0.00 | 0.00 | 43 | 1011.1 |
| 20260502235105 | 13 | 306 | 0.0 | 0.0 | 0.00 | 0.00 | 0.00 | 45 | 1011.1 |
| 20260502234924 | 13 | 306 | 0.0 | 0.0 | 0.00 | 0.00 | 0.00 | 42 | 1011.1 |
| 20260502234825 | 13 | 306 | 0.0 | 0.0 | 0.00 | 0.00 | 0.00 | 42 | 1011.1 |
| 20260502234727 | 13 | 306 | 0.0 | 0.0 | 0.00 | 0.00 | 0.00 | 42 | 1011.1 |
| 20260502234628 | 13 | 306 | 0.0 | 0.0 | 0.00 | 0.00 | 0.00 | 43 | 1011.1 |
| 20260502234530 | 13 | 306 | 0.0 | 0.0 | 0.00 | 0.00 | 0.00 | 42 | 1011.1 |
| 20260502234431 | 13 | 306 | 0.0 | 0.0 | 0.00 | 0.00 | 0.00 | 42 | 1011.1 |
| 20260502234332 | 13 | 306 | 0.0 | 0.0 | 0.00 | 0.00 | 0.00 | 43 | 1011.1 |
| 20260502234230 | 13 | 306 | 0.0 | 0.0 | 0.00 | 0.00 | 0.00 | 41 | 1011.1 |
| 20260502234132 | 13 | 306 | 0.0 | 0.0 | 0.00 | 0.00 | 0.00 | 41 | 1011.1 |
| 20260502234054 | 13 | 306 | 0.0 | 0.0 | 0.00 | 0.00 | 0.00 | 41 | 1011.1 |
| 20260502233932 | 13 | 306 | 0.0 | 0.0 | 0.00 | 0.00 | 0.00 | 41 | 1011.1 |
| 20260502233830 | 13 | 306 | 0.0 | 0.0 | 0.00 | 0.00 | 0.00 | 41 | 1011.1 |
| 20260502233735 | 14 | 306 | 0.0 | 0.0 | 0.00 | 0.00 | 0.00 | 42 | 1011.1 |
| 20260502233637 | 14 | 306 | 0.0 | 0.0 | 0.00 | 0.00 | 0.00 | 42 | 1011.1 |
| 20260502233540 | 14 | 306 | 0.0 | 0.0 | 0.00 | 0.00 | 0.00 | 41 | 1011.1 |
| 20260502233503 | 14 | 306 | 0.0 | 0.0 | 0.00 | 0.00 | 0.00 | 41 | 1011.1 |
| 20260502233404 | 14 | 306 | 0.0 | 0.0 | 0.00 | 0.00 | 0.00 | 41 | 1011.1 |
| 20260502233242 | 14 | 306 | 0.0 | 0.0 | 0.00 | 0.00 | 0.00 | 40 | 1011.1 |
| 20260502233144 | 14 | 306 | 0.0 | 0.0 | 0.00 | 0.00 | 0.00 | 41 | 1011.1 |
| 20260502233026 | 14 | 305 | 0.0 | 0.0 | 0.00 | 0.00 | 0.00 | 41 | 1011.1 |
| 20260502232946 | 14 | 304 | 0.0 | 0.0 | 0.00 | 0.00 | 0.00 | 41 | 1011.1 |
| 20260502232824 | 14 | 304 | 0.0 | 0.0 | 0.00 | 0.00 | 0.00 | 41 | 1011.2 |
| 20260502232726 | 14 | 304 | 0.0 | 0.0 | 0.00 | 0.00 | 0.00 | 41 | 1011.2 |
| 20260502232627 | 14 | 304 | 0.0 | 0.0 | 0.00 | 0.00 | 0.00 | 40 | 1011.2 |
| 20260502232529 | 14 | 304 | 0.0 | 0.0 | 0.00 | 0.00 | 0.00 | 40 | 1011.2 |
| 20260502232429 | 14 | 304 | 0.0 | 0.0 | 0.00 | 0.00 | 0.00 | 40 | 1011.2 |
| 20260502232331 | 14 | 304 | 0.0 | 0.0 | 0.00 | 0.00 | 0.00 | 40 | 1011.2 |
| 20260502232229 | 14 | 304 | 0.0 | 0.0 | 0.00 | 0.00 | 0.00 | 40 | 1011.2 |
| 20260502232130 | 14 | 304 | 0.0 | 0.0 | 0.00 | 0.00 | 0.00 | 41 | 1011.2 |
| 20260502232028 | 14 | 304 | 0.0 | 0.0 | 0.00 | 0.00 | 0.00 | 40 | 1011.2 |
| 20260502231928 | 14 | 305 | 0.0 | 0.0 | 0.00 | 0.00 | 0.00 | 39 | 1011.2 |
| 20260502231850 | 14 | 305 | 0.0 | 0.0 | 0.00 | 0.00 | 0.00 | 41 | 1011.2 |
| 20260502231734 | 14 | 305 | 0.0 | 0.0 | 0.00 | 0.00 | 0.00 | 41 | 1011.2 |
| 20260502231631 | 15 | 304 | 0.0 | 0.0 | 0.00 | 0.00 | 0.00 | 40 | 1011.2 |
| 20260502231533 | 14 | 304 | 0.0 | 0.0 | 0.00 | 0.00 | 0.00 | 39 | 1011.2 |
| 20260502231430 | 15 | 304 | 0.0 | 0.0 | 0.00 | 0.00 | 0.00 | 40 | 1011.2 |
| 20260502231332 | 15 | 305 | 0.0 | 0.0 | 0.00 | 0.00 | 0.00 | 40 | 1011.1 |
| 20260502231230 | 15 | 305 | 0.0 | 0.0 | 0.00 | 0.00 | 0.00 | 40 | 1011.1 |
| 20260502231132 | 15 | 305 | 0.0 | 0.0 | 0.00 | 0.00 | 0.00 | 40 | 1011.1 |
| 20260502231038 | 15 | 305 | 0.0 | 0.0 | 0.00 | 0.00 | 0.00 | 39 | 1011.1 |
| 20260502230939 | 15 | 305 | 0.0 | 0.0 | 0.00 | 0.00 | 0.00 | 39 | 1011.1 |
| 20260502230837 | 15 | 305 | 0.0 | 0.0 | 0.00 | 0.00 | 0.00 | 39 | 1011.1 |
| 20260502230741 | 15 | 325 | 0.0 | 0.0 | 0.00 | 0.00 | 0.00 | 39 | 1011.1 |
| 20260502230543 | 15 | 325 | 0.0 | 0.0 | 0.00 | 0.00 | 0.00 | 39 | 1011.1 |
| 20260502230444 | 15 | 325 | 0.0 | 0.0 | 0.00 | 0.00 | 0.00 | 39 | 1011.1 |
| 20260502230350 | 15 | 296 | 0.0 | 0.0 | 0.00 | 0.00 | 0.00 | 39 | 1011.1 |
| 20260502230227 | 15 | 296 | 0.0 | 0.0 | 0.00 | 0.00 | 0.00 | 38 | 1011.1 |
| 20260502230128 | 15 | 296 | 0.0 | 0.0 | 0.00 | 0.00 | 0.00 | 39 | 1011.1 |
| 20260502230030 | 15 | 296 | 0.0 | 0.0 | 0.00 | 0.00 | 0.00 | 39 | 1011.1 |
| 20260502225940 | 15 | 296 | 0.0 | 0.0 | 0.00 | 0.00 | 0.00 | 39 | 1011.1 |
| 20260502225848 | 15 | 296 | 0.0 | 0.0 | 0.00 | 0.00 | 0.00 | 38 | 1010.9 |
| 20260502225729 | 15 | 296 | 0.0 | 0.0 | 0.00 | 0.00 | 0.00 | 38 | 1010.9 |
| 20260502225630 | 15 | 296 | 0.0 | 0.0 | 0.00 | 0.00 | 0.00 | 38 | 1010.9 |
| 20260502225532 | 15 | 296 | 0.0 | 0.0 | 0.00 | 0.00 | 0.00 | 38 | 1010.9 |
| 20260502225452 | 15 | 296 | 0.0 | 0.0 | 0.00 | 0.00 | 0.00 | 38 | 1010.9 |
| 20260502225331 | 15 | 290 | 0.0 | 0.0 | 0.00 | 0.00 | 0.00 | 38 | 1010.9 |
| 20260502225230 | 15 | 301 | 1.6 | 0.0 | 0.00 | 0.00 | 0.00 | 38 | 1010.9 |
| 20260502225134 | 15 | 301 | 1.6 | 0.0 | 0.00 | 0.00 | 0.00 | 37 | 1010.9 |
| 20260502225053 | 15 | 295 | 1.6 | 0.0 | 0.00 | 0.00 | 0.00 | 37 | 1010.9 |
| 20260502224932 | 15 | 296 | 1.6 | 0.0 | 0.00 | 0.00 | 0.00 | 37 | 1010.9 |
| 20260502224835 | 15 | 1 | 1.6 | 0.0 | 0.00 | 0.00 | 0.00 | 37 | 1010.9 |
| 20260502224736 | 15 | 1 | 1.6 | 0.0 | 0.00 | 0.00 | 0.00 | 37 | 1010.9 |
| 20260502224657 | 15 | 336 | 1.6 | 0.0 | 0.00 | 0.00 | 0.00 | 38 | 1010.9 |
| 20260502224540 | 15 | 338 | 1.6 | 0.0 | 0.00 | 0.00 | 0.00 | 37 | 1010.9 |
| 20260502224440 | 15 | 338 | 1.6 | 0.0 | 0.00 | 0.00 | 0.00 | 36 | 1010.9 |
| 20260502224341 | 15 | 345 | 1.6 | 0.0 | 0.00 | 0.00 | 0.00 | 36 | 1010.7 |
| 20260502224303 | 15 | 326 | 1.6 | 0.0 | 0.00 | 0.00 | 0.00 | 36 | 1010.7 |
| 20260502224126 | 15 | 336 | 1.6 | 0.0 | 0.00 | 0.00 | 0.00 | 36 | 1010.7 |
| 20260502224048 | 16 | 345 | 1.6 | 0.0 | 0.00 | 0.00 | 0.00 | 36 | 1010.7 |
| 20260502223928 | 16 | 285 | 0.0 | 0.0 | 0.00 | 0.00 | 0.00 | 36 | 1010.7 |
| 20260502223825 | 16 | 5 | 0.0 | 0.0 | 0.00 | 0.00 | 0.00 | 36 | 1010.7 |
| 20260502223746 | 16 | 6 | 0.0 | 0.0 | 0.00 | 0.00 | 0.00 | 37 | 1010.7 |
| 20260502223626 | 16 | 6 | 0.0 | 0.0 | 0.00 | 0.00 | 0.00 | 36 | 1010.7 |
| 20260502223528 | 16 | 6 | 0.0 | 0.0 | 0.00 | 0.00 | 0.00 | 36 | 1010.7 |
| 20260502223432 | 16 | 320 | 0.0 | 0.0 | 0.00 | 0.00 | 0.00 | 35 | 1010.7 |
| 20260502223334 | 16 | 276 | 0.0 | 0.0 | 0.00 | 0.00 | 0.00 | 36 | 1010.7 |
| 20260502223232 | 16 | 276 | 0.0 | 0.0 | 0.00 | 0.00 | 0.00 | 35 | 1010.7 |
| 20260502223153 | 16 | 276 | 0.0 | 0.0 | 0.00 | 0.00 | 0.00 | 36 | 1010.7 |
| 20260502223033 | 16 | 275 | 0.0 | 0.0 | 0.00 | 0.00 | 0.00 | 36 | 1010.7 |
| 20260502222934 | 16 | 275 | 0.0 | 0.0 | 0.00 | 0.00 | 0.00 | 36 | 1010.7 |
| 20260502222832 | 16 | 275 | 0.0 | 0.0 | 0.00 | 0.00 | 0.00 | 37 | 1010.7 |
| 20260502222737 | 16 | 275 | 0.0 | 0.0 | 0.00 | 0.00 | 0.00 | 36 | 1010.7 |
| 20260502222638 | 16 | 275 | 1.6 | 0.0 | 0.00 | 0.00 | 0.00 | 36 | 1010.7 |
| 20260502222540 | 16 | 275 | 1.6 | 0.0 | 0.00 | 0.00 | 0.00 | 36 | 1010.7 |
| 20260502222437 | 16 | 275 | 1.6 | 0.0 | 0.00 | 0.00 | 0.00 | 36 | 1010.7 |
| 20260502222338 | 16 | 274 | 1.6 | 0.0 | 0.00 | 0.00 | 0.00 | 37 | 1010.7 |
| 20260502222236 | 16 | 274 | 1.6 | 0.0 | 0.00 | 0.00 | 0.00 | 37 | 1010.7 |
| 20260502222137 | 16 | 274 | 1.6 | 0.0 | 0.00 | 0.00 | 0.00 | 37 | 1010.7 |
| 20260502222043 | 15 | 274 | 1.6 | 0.0 | 0.00 | 0.00 | 0.00 | 36 | 1010.7 |
| 20260502221942 | 15 | 274 | 1.6 | 0.0 | 0.00 | 0.00 | 0.00 | 36 | 1010.7 |
| 20260502221840 | 15 | 314 | 1.6 | 0.0 | 0.00 | 0.00 | 0.00 | 36 | 1010.7 |
| 20260502221743 | 15 | 314 | 1.6 | 0.0 | 0.00 | 0.00 | 0.00 | 36 | 1010.7 |
| 20260502221704 | 15 | 314 | 1.6 | 0.0 | 0.00 | 0.00 | 0.00 | 36 | 1010.7 |
| 20260502221525 | 15 | 302 | 1.6 | 0.0 | 0.00 | 0.00 | 0.00 | 36 | 1010.7 |
| 20260502221429 | 15 | 302 | 1.6 | 0.0 | 0.00 | 0.00 | 0.00 | 36 | 1010.7 |
| 20260502221331 | 15 | 302 | 1.6 | 0.0 | 0.00 | 0.00 | 0.00 | 36 | 1010.9 |
| 20260502221231 | 15 | 303 | 1.6 | 0.0 | 0.00 | 0.00 | 0.00 | 36 | 1010.9 |
| 20260502221134 | 15 | 340 | 1.6 | 0.0 | 0.00 | 0.00 | 0.00 | 36 | 1010.9 |
| 20260502221056 | 15 | 339 | 1.6 | 0.0 | 0.00 | 0.00 | 0.00 | 37 | 1010.9 |
| 20260502220939 | 15 | 336 | 1.6 | 0.0 | 0.00 | 0.00 | 0.00 | 36 | 1010.9 |
| 20260502220837 | 15 | 308 | 1.6 | 0.0 | 0.00 | 0.00 | 0.00 | 36 | 1010.9 |
| 20260502220743 | 15 | 315 | 1.6 | 0.0 | 0.00 | 0.00 | 0.00 | 36 | 1010.9 |
| 20260502220643 | 15 | 316 | 1.6 | 0.0 | 0.00 | 0.00 | 0.00 | 35 | 1010.9 |
| 20260502220559 | 15 | 288 | 1.6 | 0.0 | 0.00 | 0.00 | 0.00 | 35 | 1010.9 |
| 20260502220342 | 16 | 313 | 1.6 | 0.0 | 0.00 | 0.00 | 0.00 | 35 | 1010.9 |
| 20260502220243 | 16 | 314 | 1.6 | 0.0 | 0.00 | 0.00 | 0.00 | 35 | 1010.9 |
| 20260502220207 | 16 | 301 | 1.6 | 0.0 | 0.00 | 0.00 | 0.00 | 37 | 1010.9 |
| 20260502220029 | 16 | 274 | 1.6 | 0.0 | 0.00 | 0.00 | 0.00 | 37 | 1010.9 |
| 20260502215930 | 16 | 274 | 1.6 | 0.0 | 0.00 | 0.00 | 0.00 | 38 | 1010.9 |
| 20260502215849 | 16 | 269 | 1.6 | 0.0 | 0.00 | 0.00 | 0.00 | 37 | 1011.0 |
| 20260502215730 | 16 | 269 | 1.6 | 0.0 | 0.00 | 0.00 | 0.00 | 36 | 1011.0 |
| 20260502215628 | 16 | 256 | 1.6 | 0.0 | 0.00 | 0.00 | 0.00 | 36 | 1011.0 |
| 20260502215550 | 16 | 345 | 1.6 | 0.0 | 0.00 | 0.00 | 0.00 | 36 | 1011.0 |
| 20260502215428 | 16 | 293 | 1.6 | 0.0 | 0.00 | 0.00 | 0.00 | 37 | 1011.0 |
| 20260502215333 | 16 | 278 | 1.6 | 0.0 | 0.00 | 0.00 | 0.00 | 37 | 1011.0 |
| 20260502215252 | 15 | 290 | 1.6 | 0.0 | 0.00 | 0.00 | 0.00 | 37 | 1011.0 |
| 20260502215131 | 15 | 290 | 1.6 | 0.0 | 0.00 | 0.00 | 0.00 | 38 | 1011.0 |
| 20260502215031 | 15 | 290 | 1.6 | 0.0 | 0.00 | 0.00 | 0.00 | 37 | 1011.0 |
| 20260502214952 | 15 | 345 | 3.2 | 0.0 | 0.00 | 0.00 | 0.00 | 37 | 1011.0 |
| 20260502214832 | 15 | 193 | 3.2 | 0.0 | 0.00 | 0.00 | 0.00 | 36 | 1011.0 |
| 20260502214734 | 15 | 313 | 3.2 | 0.0 | 0.00 | 0.00 | 0.00 | 36 | 1011.0 |
| 20260502214652 | 15 | 305 | 1.6 | 0.0 | 0.00 | 0.00 | 0.00 | 36 | 1011.0 |
| 20260502214538 | 15 | 316 | 1.6 | 0.0 | 0.00 | 0.00 | 0.00 | 36 | 1011.0 |
| 20260502214454 | 15 | 309 | 1.6 | 0.0 | 0.00 | 0.00 | 0.00 | 36 | 1011.0 |
| 20260502214335 | 15 | 292 | 1.6 | 0.0 | 0.00 | 0.00 | 0.00 | 36 | 1011.0 |
| 20260502214252 | 15 | 278 | 1.6 | 0.0 | 0.00 | 0.00 | 0.00 | 36 | 1011.0 |
| 20260502214132 | 15 | 278 | 1.6 | 0.0 | 0.00 | 0.00 | 0.00 | 35 | 1011.0 |
| 20260502214031 | 15 | 333 | 1.6 | 0.0 | 0.00 | 0.00 | 0.00 | 36 | 1011.0 |
| 20260502213931 | 15 | 282 | 1.6 | 0.0 | 0.00 | 0.00 | 0.00 | 36 | 1011.0 |
| 20260502213830 | 15 | 345 | 1.6 | 0.0 | 0.00 | 0.00 | 0.00 | 37 | 1011.0 |
| 20260502213736 | 15 | 310 | 1.6 | 0.0 | 0.00 | 0.00 | 0.00 | 37 | 1011.0 |
| 20260502213658 | 15 | 269 | 1.6 | 0.0 | 0.00 | 0.00 | 0.00 | 37 | 1011.0 |
| 20260502213539 | 15 | 269 | 1.6 | 0.0 | 0.00 | 0.00 | 0.00 | 37 | 1011.0 |
| 20260502213439 | 15 | 269 | 1.6 | 0.0 | 0.00 | 0.00 | 0.00 | 37 | 1011.0 |
| 20260502213341 | 15 | 297 | 1.6 | 0.0 | 0.00 | 0.00 | 0.00 | 37 | 1011.0 |
| 20260502213220 | 15 | 286 | 0.0 | 0.0 | 0.00 | 0.00 | 0.00 | 37 | 1011.0 |
| 20260502213130 | 15 | 290 | 0.0 | 0.0 | 0.00 | 0.00 | 0.00 | 37 | 1011.0 |
| 20260502213028 | 15 | 294 | 0.0 | 0.0 | 0.00 | 0.00 | 0.00 | 38 | 1011.0 |
| 20260502212928 | 15 | 294 | 1.6 | 0.0 | 0.00 | 0.00 | 0.00 | 38 | 1011.0 |
| 20260502212830 | 15 | 295 | 0.0 | 0.0 | 0.00 | 0.00 | 0.00 | 37 | 1010.6 |
| 20260502212731 | 15 | 299 | 1.6 | 0.0 | 0.00 | 0.00 | 0.00 | 37 | 1010.6 |
| 20260502212630 | 15 | 299 | 1.6 | 0.0 | 0.00 | 0.00 | 0.00 | 38 | 1010.6 |
| 20260502212532 | 15 | 299 | 1.6 | 0.0 | 0.00 | 0.00 | 0.00 | 39 | 1010.6 |
| 20260502212433 | 15 | 278 | 1.6 | 0.0 | 0.00 | 0.00 | 0.00 | 38 | 1010.6 |
| 20260502212335 | 15 | 279 | 1.6 | 0.0 | 0.00 | 0.00 | 0.00 | 38 | 1010.6 |
| 20260502212253 | 15 | 276 | 1.6 | 0.0 | 0.00 | 0.00 | 0.00 | 38 | 1010.6 |
| 20260502212133 | 15 | 277 | 1.6 | 0.0 | 0.00 | 0.00 | 0.00 | 38 | 1010.6 |
| 20260502212032 | 15 | 280 | 1.6 | 0.0 | 0.00 | 0.00 | 0.00 | 37 | 1010.6 |
| 20260502211932 | 15 | 281 | 1.6 | 0.0 | 0.00 | 0.00 | 0.00 | 38 | 1010.6 |
| 20260502211830 | 15 | 317 | 1.6 | 0.0 | 0.00 | 0.00 | 0.00 | 38 | 1010.6 |
| 20260502211736 | 15 | 338 | 3.2 | 0.0 | 0.00 | 0.00 | 0.00 | 37 | 1010.6 |
| 20260502211633 | 15 | 286 | 3.2 | 0.0 | 0.00 | 0.00 | 0.00 | 38 | 1010.6 |
| 20260502211535 | 15 | 315 | 3.2 | 0.0 | 0.00 | 0.00 | 0.00 | 37 | 1010.6 |
| 20260502211437 | 15 | 300 | 3.2 | 0.0 | 0.00 | 0.00 | 0.00 | 38 | 1010.6 |
| 20260502211341 | 15 | 290 | 3.2 | 0.0 | 0.00 | 0.00 | 0.00 | 38 | 1010.6 |
| 20260502211243 | 15 | 285 | 3.2 | 0.0 | 0.00 | 0.00 | 0.00 | 37 | 1010.6 |
| 20260502211128 | 16 | 296 | 1.6 | 0.0 | 0.00 | 0.00 | 0.00 | 36 | 1010.6 |
| 20260502211027 | 16 | 272 | 1.6 | 0.0 | 0.00 | 0.00 | 0.00 | 37 | 1010.6 |
| 20260502210930 | 16 | 334 | 1.6 | 0.0 | 0.00 | 0.00 | 0.00 | 37 | 1010.6 |
| 20260502210829 | 16 | 280 | 1.6 | 0.0 | 0.00 | 0.00 | 0.00 | 37 | 1010.6 |
| 20260502210733 | 16 | 312 | 1.6 | 0.0 | 0.00 | 0.00 | 0.00 | 37 | 1010.6 |
| 20260502210635 | 16 | 263 | 1.6 | 0.0 | 0.00 | 0.00 | 0.00 | 37 | 1010.6 |
| 20260502210540 | 16 | 261 | 1.6 | 0.0 | 0.00 | 0.00 | 0.00 | 37 | 1010.6 |
| 20260502210436 | 16 | 256 | 1.6 | 0.0 | 0.00 | 0.00 | 0.00 | 37 | 1010.6 |
| 20260502210338 | 16 | 280 | 1.6 | 0.0 | 0.00 | 0.00 | 0.00 | 37 | 1010.6 |
| 20260502210236 | 16 | 267 | 1.6 | 0.0 | 0.00 | 0.00 | 0.00 | 37 | 1010.6 |
| 20260502210138 | 16 | 267 | 1.6 | 0.0 | 0.00 | 0.00 | 0.00 | 37 | 1010.6 |
| 20260502210036 | 16 | 267 | 1.6 | 0.0 | 0.00 | 0.00 | 0.00 | 36 | 1010.6 |
| 20260502205936 | 16 | 284 | 1.6 | 0.0 | 0.00 | 0.00 | 0.00 | 37 | 1010.6 |
| 20260502205839 | 16 | 305 | 1.6 | 0.0 | 0.00 | 0.00 | 0.00 | 35 | 1010.5 |
| 20260502205742 | 16 | 313 | 0.0 | 0.0 | 0.00 | 0.00 | 0.00 | 37 | 1010.5 |
| 20260502205623 | 16 | 355 | 0.0 | 0.0 | 0.00 | 0.00 | 0.00 | 37 | 1010.5 |
| 20260502205528 | 16 | 27 | 0.0 | 0.0 | 0.00 | 0.00 | 0.00 | 37 | 1010.5 |
| 20260502205426 | 16 | 345 | 0.0 | 0.0 | 0.00 | 0.00 | 0.00 | 38 | 1010.5 |
| 20260502205327 | 16 | 340 | 0.0 | 0.0 | 0.00 | 0.00 | 0.00 | 37 | 1010.5 |
| 20260502205250 | 16 | 195 | 0.0 | 0.0 | 0.00 | 0.00 | 0.00 | 37 | 1010.5 |
| 20260502205130 | 16 | 193 | 1.6 | 0.0 | 0.00 | 0.00 | 0.00 | 37 | 1010.5 |
| 20260502205028 | 16 | 192 | 1.6 | 0.0 | 0.00 | 0.00 | 0.00 | 37 | 1010.5 |
| 20260502204933 | 16 | 261 | 1.6 | 0.0 | 0.00 | 0.00 | 0.00 | 38 | 1010.5 |
| 20260502204830 | 16 | 212 | 1.6 | 0.0 | 0.00 | 0.00 | 0.00 | 38 | 1010.5 |
| 20260502204752 | 16 | 274 | 1.6 | 0.0 | 0.00 | 0.00 | 0.00 | 38 | 1010.5 |
| 20260502204633 | 15 | 274 | 1.6 | 0.0 | 0.00 | 0.00 | 0.00 | 38 | 1010.5 |
| 20260502204556 | 15 | 274 | 1.6 | 0.0 | 0.00 | 0.00 | 0.00 | 38 | 1010.5 |
| 20260502204435 | 15 | 292 | 1.6 | 0.0 | 0.00 | 0.00 | 0.00 | 38 | 1010.5 |
| 20260502204338 | 15 | 292 | 1.6 | 0.0 | 0.00 | 0.00 | 0.00 | 38 | 1010.7 |
| 20260502204236 | 15 | 292 | 1.6 | 0.0 | 0.00 | 0.00 | 0.00 | 38 | 1010.7 |
| 20260502204137 | 15 | 292 | 1.6 | 0.0 | 0.00 | 0.00 | 0.00 | 38 | 1010.7 |
| 20260502204056 | 15 | 147 | 1.6 | 0.0 | 0.00 | 0.00 | 0.00 | 39 | 1010.7 |
| 20260502203936 | 15 | 274 | 1.6 | 0.0 | 0.00 | 0.00 | 0.00 | 39 | 1010.7 |
| 20260502203835 | 15 | 350 | 1.6 | 0.0 | 0.00 | 0.00 | 0.00 | 39 | 1010.7 |
| 20260502203741 | 15 | 324 | 1.6 | 0.0 | 0.00 | 0.00 | 0.00 | 39 | 1010.7 |
| 20260502203640 | 15 | 313 | 3.2 | 0.0 | 0.00 | 0.00 | 0.00 | 39 | 1010.7 |
| 20260502203542 | 15 | 314 | 3.2 | 0.0 | 0.00 | 0.00 | 0.00 | 39 | 1010.7 |
| 20260502203441 | 15 | 305 | 1.6 | 0.0 | 0.00 | 0.00 | 0.00 | 40 | 1010.7 |
| 20260502203341 | 15 | 332 | 1.6 | 0.0 | 0.00 | 0.00 | 0.00 | 39 | 1010.7 |
| 20260502203302 | 15 | 309 | 1.6 | 0.0 | 0.00 | 0.00 | 0.00 | 39 | 1010.7 |
| 20260502203127 | 15 | 14 | 1.6 | 0.0 | 0.00 | 0.00 | 0.00 | 39 | 1010.7 |
| 20260502203025 | 15 | 333 | 1.6 | 0.0 | 0.00 | 0.00 | 0.00 | 39 | 1010.7 |
| 20260502202945 | 15 | 338 | 1.6 | 0.0 | 0.00 | 0.00 | 0.00 | 39 | 1010.7 |
| 20260502202824 | 15 | 339 | 1.6 | 0.0 | 0.00 | 0.00 | 0.00 | 39 | 1010.9 |
| 20260502202728 | 15 | 355 | 1.6 | 0.0 | 0.00 | 0.00 | 0.00 | 39 | 1010.9 |
| 20260502202648 | 15 | 308 | 1.6 | 0.0 | 0.00 | 0.00 | 0.00 | 39 | 1010.9 |
| 20260502202529 | 15 | 9 | 1.6 | 0.0 | 0.00 | 0.00 | 0.00 | 39 | 1010.9 |
| 20260502202430 | 15 | 18 | 1.6 | 0.0 | 0.00 | 0.00 | 0.00 | 39 | 1010.9 |
| 20260502202332 | 15 | 318 | 1.6 | 0.0 | 0.00 | 0.00 | 0.00 | 38 | 1010.9 |
| 20260502202230 | 15 | 327 | 1.6 | 0.0 | 0.00 | 0.00 | 0.00 | 39 | 1010.9 |
| 20260502202134 | 15 | 345 | 1.6 | 0.0 | 0.00 | 0.00 | 0.00 | 39 | 1010.9 |
| 20260502202032 | 15 | 355 | 1.6 | 0.0 | 0.00 | 0.00 | 0.00 | 39 | 1010.9 |
| 20260502201932 | 15 | 317 | 0.0 | 0.0 | 0.00 | 0.00 | 0.00 | 39 | 1010.9 |
| 20260502201831 | 15 | 307 | 0.0 | 0.0 | 0.00 | 0.00 | 0.00 | 39 | 1010.9 |
| 20260502201736 | 15 | 338 | 1.6 | 0.0 | 0.00 | 0.00 | 0.00 | 38 | 1010.9 |
| 20260502201636 | 15 | 37 | 1.6 | 0.0 | 0.00 | 0.00 | 0.00 | 39 | 1010.9 |
| 20260502201540 | 15 | 355 | 1.6 | 0.0 | 0.00 | 0.00 | 0.00 | 38 | 1010.9 |
| 20260502201440 | 15 | 355 | 1.6 | 0.0 | 0.00 | 0.00 | 0.00 | 39 | 1010.9 |
| 20260502201342 | 15 | 333 | 3.2 | 0.0 | 0.00 | 0.00 | 0.00 | 39 | 1011.1 |
| 20260502201243 | 15 | 333 | 3.2 | 0.0 | 0.00 | 0.00 | 0.00 | 39 | 1011.1 |
| 20260502201129 | 15 | 345 | 3.2 | 0.0 | 0.00 | 0.00 | 0.00 | 38 | 1011.1 |
| 20260502201048 | 15 | 340 | 3.2 | 0.0 | 0.00 | 0.00 | 0.00 | 38 | 1011.1 |
| 20260502200930 | 15 | 340 | 4.8 | 0.0 | 0.00 | 0.00 | 0.00 | 38 | 1011.1 |
| 20260502200830 | 15 | 5 | 4.8 | 0.0 | 0.00 | 0.00 | 0.00 | 38 | 1011.1 |
| 20260502200731 | 15 | 336 | 4.8 | 0.0 | 0.00 | 0.00 | 0.00 | 37 | 1011.1 |
| 20260502200628 | 15 | 47 | 4.8 | 0.0 | 0.00 | 0.00 | 0.00 | 37 | 1011.1 |
| 20260502200534 | 16 | 3 | 4.8 | 0.0 | 0.00 | 0.00 | 0.00 | 37 | 1011.1 |
| 20260502200435 | 16 | 7 | 4.8 | 0.0 | 0.00 | 0.00 | 0.00 | 38 | 1011.1 |
| 20260502200336 | 16 | 359 | 3.2 | 0.0 | 0.00 | 0.00 | 0.00 | 38 | 1011.1 |
| 20260502200234 | 16 | 2 | 3.2 | 0.0 | 0.00 | 0.00 | 0.00 | 40 | 1011.1 |
| 20260502200155 | 16 | 340 | 3.2 | 0.0 | 0.00 | 0.00 | 0.00 | 38 | 1011.1 |
| 20260502200057 | 16 | 335 | 3.2 | 0.0 | 0.00 | 0.00 | 0.00 | 38 | 1011.1 |
| 20260502195939 | 16 | 350 | 3.2 | 0.0 | 0.00 | 0.00 | 0.00 | 37 | 1011.1 |
| 20260502195837 | 16 | 359 | 3.2 | 0.0 | 0.00 | 0.00 | 0.00 | 37 | 1011.2 |
| 20260502195742 | 16 | 321 | 3.2 | 0.0 | 0.00 | 0.00 | 0.00 | 37 | 1011.2 |
| 20260502195639 | 16 | 321 | 3.2 | 0.0 | 0.00 | 0.00 | 0.00 | 36 | 1011.2 |
| 20260502195541 | 16 | 305 | 3.2 | 0.0 | 0.00 | 0.00 | 0.00 | 37 | 1011.2 |
| 20260502195442 | 16 | 305 | 3.2 | 0.0 | 0.00 | 0.00 | 0.00 | 37 | 1011.2 |
| 20260502195400 | 16 | 345 | 3.2 | 0.0 | 0.00 | 0.00 | 0.00 | 37 | 1011.2 |
| 20260502195300 | 16 | 345 | 3.2 | 0.0 | 0.00 | 0.00 | 0.00 | 36 | 1011.2 |
| 20260502195141 | 16 | 319 | 3.2 | 0.0 | 0.00 | 0.00 | 0.00 | 37 | 1011.2 |
| 20260502195039 | 16 | 355 | 1.6 | 0.0 | 0.00 | 0.00 | 0.00 | 37 | 1011.2 |
| 20260502194924 | 16 | 335 | 1.6 | 0.0 | 0.00 | 0.00 | 0.00 | 36 | 1011.2 |
| 20260502194825 | 16 | 9 | 1.6 | 0.0 | 0.00 | 0.00 | 0.00 | 36 | 1011.2 |
| 20260502194726 | 16 | 22 | 1.6 | 0.0 | 0.00 | 0.00 | 0.00 | 36 | 1011.2 |
| 20260502194627 | 15 | 29 | 1.6 | 0.0 | 0.00 | 0.00 | 0.00 | 36 | 1011.2 |
| 20260502194530 | 15 | 28 | 1.6 | 0.0 | 0.00 | 0.00 | 0.00 | 36 | 1011.2 |
| 20260502194426 | 15 | 360 | 1.6 | 0.0 | 0.00 | 0.00 | 0.00 | 36 | 1011.2 |
| 20260502194332 | 15 | 360 | 3.2 | 0.0 | 0.00 | 0.00 | 0.00 | 35 | 1011.6 |
| 20260502194229 | 15 | 19 | 3.2 | 0.0 | 0.00 | 0.00 | 0.00 | 36 | 1011.6 |
| 20260502194131 | 15 | 24 | 1.6 | 0.0 | 0.00 | 0.00 | 0.00 | 36 | 1011.6 |
| 20260502194030 | 15 | 24 | 1.6 | 0.0 | 0.00 | 0.00 | 0.00 | 37 | 1011.6 |
| 20260502193932 | 15 | 24 | 1.6 | 0.0 | 0.00 | 0.00 | 0.00 | 37 | 1011.6 |
| 20260502193830 | 15 | 24 | 1.6 | 0.0 | 0.00 | 0.00 | 0.00 | 38 | 1011.6 |
| 20260502193736 | 15 | 328 | 1.6 | 0.0 | 0.00 | 0.00 | 0.00 | 37 | 1011.6 |
| 20260502193633 | 15 | 6 | 1.6 | 0.0 | 0.00 | 0.00 | 0.00 | 37 | 1011.6 |
| 20260502193535 | 15 | 4 | 1.6 | 0.0 | 0.00 | 0.00 | 0.00 | 38 | 1011.6 |
| 20260502193454 | 15 | 355 | 1.6 | 0.0 | 0.00 | 0.00 | 0.00 | 37 | 1011.6 |
| 20260502193337 | 15 | 338 | 0.0 | 0.0 | 0.00 | 0.00 | 0.00 | 38 | 1011.6 |
| 20260502193240 | 15 | 19 | 0.0 | 0.0 | 0.00 | 0.00 | 0.00 | 38 | 1011.6 |
| 20260502193145 | 15 | 32 | 0.0 | 0.0 | 0.00 | 0.00 | 0.00 | 37 | 1011.6 |
| 20260502193027 | 15 | 308 | 1.6 | 0.0 | 0.00 | 0.00 | 0.00 | 37 | 1011.6 |
| 20260502192927 | 15 | 311 | 1.6 | 0.0 | 0.00 | 0.00 | 0.00 | 38 | 1011.6 |
| 20260502192826 | 15 | 311 | 1.6 | 0.0 | 0.00 | 0.00 | 0.00 | 38 | 1011.7 |